| time (UTC) | temp F | wind direction | speed MPH | gust MPH | rain 1hr in | rain 24hr in | rain mn in | humidity % | barometer mb |
| 20260903205730 | 87 | 247 | 3.0 | 6.0 | 0.00 | 0.24 | 0.24 | 61 | 1014.1 |
| 20260903205626 | 87 | 252 | 3.0 | 6.0 | 0.00 | 0.24 | 0.24 | 61 | 1014.0 |
| 20260903205521 | 87 | 297 | 5.0 | 7.0 | 0.00 | 0.24 | 0.24 | 60 | 1014.0 |
| 20260903205417 | 87 | 255 | 5.0 | 8.0 | 0.00 | 0.24 | 0.24 | 60 | 1014.1 |
| 20260903205328 | 87 | 245 | 2.0 | 4.0 | 0.00 | 0.24 | 0.24 | 64 | 1014.0 |
| 20260903205224 | 86 | 238 | 2.0 | 6.0 | 0.00 | 0.24 | 0.24 | 61 | 1014.0 |
| 20260903205140 | 86 | 241 | 3.0 | 6.0 | 0.00 | 0.24 | 0.24 | 59 | 1014.0 |
| 20260903205035 | 86 | 241 | 2.0 | 4.0 | 0.00 | 0.24 | 0.24 | 62 | 1014.1 |
| 20260903204927 | 86 | 227 | 4.0 | 6.0 | 0.00 | 0.24 | 0.24 | 60 | 1014.0 |
| 20260903204822 | 86 | 241 | 3.0 | 4.0 | 0.00 | 0.24 | 0.24 | 63 | 1014.0 |
| 20260903204718 | 86 | 243 | 1.0 | 2.0 | 0.00 | 0.24 | 0.24 | 65 | 1013.9 |
| 20260903204630 | 86 | 237 | 1.0 | 1.0 | 0.00 | 0.24 | 0.24 | 64 | 1014.0 |
| 20260903204525 | 86 | 228 | 2.0 | 3.0 | 0.00 | 0.24 | 0.24 | 65 | 1014.0 |
| 20260903204420 | 86 | 245 | 1.0 | 2.0 | 0.00 | 0.24 | 0.24 | 64 | 1013.7 |
| 20260903204316 | 86 | 284 | 1.0 | 2.0 | 0.00 | 0.24 | 0.24 | 64 | 1013.8 |
| 20260903204248 | 86 | 229 | 2.0 | 3.0 | 0.00 | 0.24 | 0.24 | 63 | 1014.0 |
| 20260903204123 | 86 | 187 | 2.0 | 3.0 | 0.00 | 0.24 | 0.24 | 64 | 1013.9 |
| 20260903204038 | 86 | 193 | 2.0 | 6.0 | 0.00 | 0.24 | 0.24 | 63 | 1014.0 |
| 20260903203929 | 86 | 225 | 2.0 | 4.0 | 0.00 | 0.24 | 0.24 | 62 | 1013.8 |
| 20260903203905 | 86 | 261 | 2.0 | 4.0 | 0.00 | 0.24 | 0.24 | 63 | 1013.8 |
| 20260903203721 | 85 | 259 | 2.0 | 4.0 | 0.00 | 0.24 | 0.24 | 64 | 1013.8 |
| 20260903203616 | 85 | 243 | 2.0 | 3.0 | 0.00 | 0.24 | 0.24 | 64 | 1013.8 |
| 20260903203528 | 85 | 244 | 1.0 | 4.0 | 0.00 | 0.24 | 0.24 | 63 | 1013.7 |
| 20260903203423 | 85 | 249 | 3.0 | 6.0 | 0.00 | 0.24 | 0.24 | 63 | 1013.7 |
| 20260903203339 | 85 | 190 | 2.0 | 3.0 | 0.00 | 0.24 | 0.24 | 65 | 1013.6 |
| 20260903203231 | 85 | 245 | 1.0 | 2.0 | 0.00 | 0.24 | 0.24 | 64 | 1013.6 |
| 20260903203126 | 85 | 225 | 1.0 | 2.0 | 0.00 | 0.24 | 0.24 | 64 | 1013.7 |
| 20260903203021 | 85 | 256 | 2.0 | 3.0 | 0.00 | 0.24 | 0.24 | 62 | 1013.7 |
| 20260903202937 | 85 | 242 | 4.0 | 4.0 | 0.00 | 0.24 | 0.24 | 63 | 1013.9 |
| 20260903202829 | 85 | 270 | 3.0 | 6.0 | 0.00 | 0.24 | 0.24 | 65 | 1013.8 |
| 20260903202724 | 85 | 248 | 2.0 | 2.0 | 0.00 | 0.24 | 0.24 | 65 | 1013.8 |
| 20260903202640 | 85 | 240 | 1.0 | 1.0 | 0.00 | 0.24 | 0.24 | 64 | 1013.7 |
| 20260903202535 | 85 | 233 | 1.0 | 3.0 | 0.00 | 0.24 | 0.24 | 64 | 1013.9 |
| 20260903202427 | 85 | 235 | 1.0 | 3.0 | 0.00 | 0.24 | 0.24 | 64 | 1013.8 |
| 20260903202322 | 85 | 240 | 3.0 | 3.0 | 0.00 | 0.24 | 0.24 | 65 | 1013.9 |
| 20260903202218 | 85 | 273 | 2.0 | 3.0 | 0.00 | 0.24 | 0.24 | 65 | 1013.9 |
| 20260903202130 | 85 | 313 | 2.0 | 3.0 | 0.00 | 0.24 | 0.24 | 65 | 1013.9 |
| 20260903202045 | 85 | 299 | 2.0 | 3.0 | 0.00 | 0.24 | 0.24 | 66 | 1013.9 |
| 20260903201941 | 85 | 260 | 4.0 | 4.0 | 0.00 | 0.24 | 0.24 | 64 | 1013.8 |
| 20260903201816 | 85 | 264 | 2.0 | 6.0 | 0.00 | 0.24 | 0.24 | 64 | 1013.9 |
| 20260903201728 | 85 | 245 | 2.0 | 4.0 | 0.00 | 0.24 | 0.24 | 64 | 1013.8 |
| 20260903201623 | 85 | 250 | 3.0 | 4.0 | 0.00 | 0.24 | 0.24 | 63 | 1013.8 |
| 20260903201519 | 85 | 275 | 2.0 | 2.0 | 0.00 | 0.24 | 0.24 | 64 | 1013.7 |
| 20260903201431 | 85 | 227 | 2.0 | 3.0 | 0.00 | 0.24 | 0.24 | 65 | 1013.9 |
| 20260903201326 | 84 | 338 | 1.0 | 3.0 | 0.00 | 0.24 | 0.24 | 63 | 1013.8 |
| 20260903201222 | 84 | 263 | 3.0 | 6.0 | 0.00 | 0.24 | 0.24 | 63 | 1013.8 |
| 20260903201117 | 84 | 249 | 2.0 | 3.0 | 0.00 | 0.24 | 0.24 | 63 | 1013.9 |
| 20260903201029 | 84 | 272 | 2.0 | 4.0 | 0.00 | 0.24 | 0.24 | 64 | 1013.8 |
| 20260903200924 | 84 | 258 | 3.0 | 4.0 | 0.00 | 0.24 | 0.24 | 64 | 1013.8 |
| 20260903200820 | 84 | 232 | 1.0 | 3.0 | 0.00 | 0.24 | 0.24 | 64 | 1013.8 |
| 20260903200715 | 84 | 230 | 0.0 | 1.0 | 0.00 | 0.24 | 0.24 | 63 | 1013.8 |
| 20260903200628 | 84 | 231 | 3.0 | 6.0 | 0.00 | 0.24 | 0.24 | 63 | 1013.8 |
| 20260903200522 | 84 | 270 | 4.0 | 8.0 | 0.00 | 0.24 | 0.24 | 64 | 1013.8 |
| 20260903200418 | 84 | 244 | 2.0 | 4.0 | 0.00 | 0.24 | 0.24 | 65 | 1014.0 |
| 20260903200330 | 84 | 252 | 3.0 | 4.0 | 0.00 | 0.24 | 0.24 | 67 | 1014.1 |
| 20260903200225 | 84 | 251 | 2.0 | 4.0 | 0.00 | 0.24 | 0.24 | 66 | 1013.9 |
| 20260903200121 | 84 | 214 | 2.0 | 4.0 | 0.00 | 0.24 | 0.24 | 65 | 1013.9 |
| 20260903200016 | 84 | 198 | 2.0 | 3.0 | 0.00 | 0.24 | 0.24 | 67 | 1013.8 |
| 20260903195928 | 84 | 235 | 2.0 | 2.0 | 0.00 | 0.24 | 0.24 | 66 | 1013.9 |
| 20260903195824 | 84 | 234 | 2.0 | 3.0 | 0.00 | 0.24 | 0.24 | 66 | 1014.1 |
| 20260903195759 | 84 | 167 | 2.0 | 2.0 | 0.00 | 0.24 | 0.24 | 65 | 1014.1 |
| 20260903195631 | 84 | 222 | 2.0 | 4.0 | 0.00 | 0.24 | 0.24 | 65 | 1013.9 |
| 20260903195526 | 84 | 189 | 3.0 | 7.0 | 0.00 | 0.24 | 0.24 | 65 | 1013.9 |
| 20260903195442 | 84 | 209 | 2.0 | 6.0 | 0.00 | 0.24 | 0.24 | 65 | 1014.0 |
| 20260903195318 | 84 | 250 | 2.0 | 4.0 | 0.00 | 0.24 | 0.24 | 64 | 1014.0 |
| 20260903195229 | 84 | 236 | 2.0 | 4.0 | 0.00 | 0.24 | 0.24 | 64 | 1014.1 |
| 20260903195125 | 84 | 237 | 3.0 | 3.0 | 0.00 | 0.24 | 0.24 | 64 | 1013.9 |
| 20260903195021 | 84 | 303 | 4.0 | 6.0 | 0.00 | 0.24 | 0.24 | 63 | 1014.0 |
| 20260903194916 | 84 | 251 | 4.0 | 6.0 | 0.00 | 0.24 | 0.24 | 64 | 1014.0 |
| 20260903194828 | 84 | 249 | 4.0 | 6.0 | 0.00 | 0.24 | 0.24 | 65 | 1014.0 |
| 20260903194723 | 84 | 241 | 2.0 | 3.0 | 0.00 | 0.24 | 0.24 | 66 | 1013.9 |
| 20260903194659 | 84 | 234 | 1.0 | 2.0 | 0.00 | 0.24 | 0.24 | 63 | 1013.9 |
| 20260903194550 | 84 | 233 | 2.0 | 8.0 | 0.00 | 0.24 | 0.24 | 64 | 1013.9 |
| 20260903194446 | 84 | 228 | 2.0 | 6.0 | 0.00 | 0.24 | 0.24 | 65 | 1014.0 |
| 20260903194322 | 84 | 204 | 2.0 | 3.0 | 0.00 | 0.24 | 0.24 | 63 | 1014.1 |
| 20260903194218 | 84 | 247 | 3.0 | 6.0 | 0.00 | 0.24 | 0.24 | 64 | 1014.1 |
| 20260903194129 | 84 | 224 | 2.0 | 4.0 | 0.00 | 0.24 | 0.24 | 64 | 1014.0 |
| 20260903194025 | 84 | 186 | 3.0 | 7.0 | 0.00 | 0.24 | 0.24 | 63 | 1014.1 |
| 20260903193940 | 84 | 252 | 4.0 | 7.0 | 0.00 | 0.24 | 0.24 | 64 | 1014.1 |
| 20260903193815 | 84 | 236 | 3.0 | 6.0 | 0.00 | 0.24 | 0.24 | 64 | 1014.1 |
| 20260903193727 | 84 | 224 | 0.0 | 1.0 | 0.00 | 0.24 | 0.24 | 63 | 1014.2 |
| 20260903193622 | 84 | 235 | 2.0 | 4.0 | 0.00 | 0.24 | 0.24 | 64 | 1014.2 |
| 20260903193518 | 84 | 220 | 1.0 | 2.0 | 0.00 | 0.24 | 0.24 | 65 | 1014.0 |
| 20260903193430 | 84 | 230 | 2.0 | 2.0 | 0.00 | 0.24 | 0.24 | 65 | 1014.3 |
| 20260903193325 | 84 | 220 | 3.0 | 6.0 | 0.00 | 0.24 | 0.24 | 63 | 1014.1 |
| 20260903193241 | 84 | 233 | 3.0 | 6.0 | 0.00 | 0.24 | 0.24 | 63 | 1014.1 |
| 20260903193117 | 84 | 256 | 5.0 | 8.0 | 0.00 | 0.24 | 0.24 | 63 | 1014.2 |
| 20260903193028 | 84 | 232 | 2.0 | 6.0 | 0.00 | 0.24 | 0.24 | 63 | 1014.1 |
| 20260903192924 | 84 | 242 | 3.0 | 6.0 | 0.00 | 0.24 | 0.24 | 66 | 1014.2 |
| 20260903192839 | 84 | 307 | 3.0 | 6.0 | 0.00 | 0.24 | 0.24 | 63 | 1014.1 |
| 20260903192731 | 84 | 253 | 4.0 | 9.0 | 0.00 | 0.24 | 0.24 | 65 | 1014.2 |
| 20260903192626 | 84 | 227 | 2.0 | 4.0 | 0.00 | 0.24 | 0.24 | 67 | 1014.0 |
| 20260903192522 | 84 | 196 | 2.0 | 2.0 | 0.00 | 0.24 | 0.24 | 66 | 1014.1 |
| 20260903192438 | 84 | 238 | 1.0 | 2.0 | 0.00 | 0.24 | 0.24 | 65 | 1014.1 |
| 20260903192329 | 84 | 245 | 2.0 | 2.0 | 0.00 | 0.24 | 0.24 | 64 | 1014.2 |
| 20260903192237 | 84 | 245 | 3.0 | 3.0 | 0.00 | 0.24 | 0.24 | 64 | 1014.0 |
| 20260903192121 | 84 | 283 | 5.0 | 8.0 | 0.00 | 0.24 | 0.24 | 64 | 1014.2 |
| 20260903192016 | 84 | 271 | 2.0 | 4.0 | 0.00 | 0.24 | 0.24 | 65 | 1014.2 |
| 20260903191928 | 84 | 250 | 1.0 | 2.0 | 0.00 | 0.24 | 0.24 | 65 | 1014.1 |
| 20260903191823 | 84 | 245 | 1.0 | 2.0 | 0.00 | 0.24 | 0.24 | 66 | 1014.2 |
| 20260903191739 | 84 | 235 | 2.0 | 6.0 | 0.00 | 0.24 | 0.24 | 64 | 1014.2 |
| 20260903191631 | 84 | 262 | 5.0 | 7.0 | 0.00 | 0.24 | 0.24 | 66 | 1014.3 |
| 20260903191546 | 84 | 248 | 3.0 | 4.0 | 0.00 | 0.24 | 0.24 | 67 | 1014.2 |
| 20260903191421 | 83 | 259 | 1.0 | 2.0 | 0.00 | 0.24 | 0.24 | 66 | 1014.3 |
| 20260903191317 | 83 | 254 | 3.0 | 8.0 | 0.00 | 0.24 | 0.24 | 68 | 1014.3 |
| 20260903191228 | 83 | 226 | 2.0 | 7.0 | 0.00 | 0.24 | 0.24 | 67 | 1014.4 |
| 20260903191124 | 83 | 257 | 2.0 | 2.0 | 0.00 | 0.24 | 0.24 | 65 | 1014.4 |
| 20260903191059 | 83 | 257 | 2.0 | 4.0 | 0.00 | 0.24 | 0.24 | 65 | 1014.3 |
| 20260903190915 | 83 | 247 | 3.0 | 6.0 | 0.00 | 0.24 | 0.24 | 65 | 1014.3 |
| 20260903190827 | 83 | 239 | 3.0 | 6.0 | 0.00 | 0.24 | 0.24 | 66 | 1014.5 |
| 20260903190723 | 83 | 190 | 1.0 | 2.0 | 0.00 | 0.24 | 0.24 | 68 | 1014.4 |
| 20260903190618 | 83 | 155 | 1.0 | 3.0 | 0.00 | 0.24 | 0.24 | 67 | 1014.4 |
| 20260903190530 | 83 | 208 | 2.0 | 3.0 | 0.00 | 0.25 | 0.24 | 66 | 1014.4 |
| 20260903190425 | 83 | 270 | 5.0 | 7.0 | 0.00 | 0.25 | 0.24 | 66 | 1014.6 |
| 20260903190321 | 83 | 262 | 5.0 | 7.0 | 0.00 | 0.25 | 0.24 | 64 | 1014.4 |
| 20260903190216 | 83 | 231 | 2.0 | 4.0 | 0.00 | 0.25 | 0.24 | 63 | 1014.5 |
| 20260903190148 | 83 | 259 | 4.0 | 8.0 | 0.00 | 0.25 | 0.24 | 63 | 1014.5 |
| 20260903190024 | 83 | 215 | 4.0 | 6.0 | 0.00 | 0.25 | 0.24 | 64 | 1014.6 |
| 20260903185920 | 83 | 263 | 4.0 | 6.0 | 0.00 | 0.25 | 0.24 | 64 | 1014.6 |
| 20260903185815 | 83 | 240 | 4.0 | 7.0 | 0.00 | 0.25 | 0.24 | 64 | 1014.4 |
| 20260903185807 | 83 | 249 | 2.0 | 4.0 | 0.00 | 0.25 | 0.24 | 65 | 1014.6 |
| 20260903185622 | 83 | 233 | 4.0 | 7.0 | 0.00 | 0.25 | 0.24 | 65 | 1014.5 |
| 20260903185518 | 83 | 240 | 4.0 | 7.0 | 0.00 | 0.25 | 0.24 | 65 | 1014.6 |
| 20260903185430 | 83 | 233 | 4.0 | 7.0 | 0.00 | 0.25 | 0.24 | 67 | 1014.5 |
| 20260903185325 | 83 | 235 | 5.0 | 8.0 | 0.00 | 0.26 | 0.24 | 66 | 1014.4 |
| 20260903185221 | 83 | 226 | 2.0 | 7.0 | 0.00 | 0.26 | 0.24 | 66 | 1014.3 |
| 20260903185137 | 83 | 217 | 2.0 | 6.0 | 0.00 | 0.26 | 0.24 | 67 | 1014.6 |
| 20260903185028 | 83 | 274 | 1.0 | 2.0 | 0.00 | 0.26 | 0.24 | 67 | 1014.6 |
| 20260903184924 | 83 | 249 | 3.0 | 7.0 | 0.00 | 0.27 | 0.24 | 66 | 1014.7 |
| 20260903184819 | 83 | 225 | 4.0 | 6.0 | 0.00 | 0.27 | 0.24 | 66 | 1014.7 |
| 20260903184715 | 83 | 252 | 1.0 | 3.0 | 0.00 | 0.27 | 0.24 | 67 | 1014.7 |
| 20260903184626 | 83 | 234 | 3.0 | 4.0 | 0.00 | 0.27 | 0.24 | 65 | 1014.8 |
| 20260903184522 | 83 | 224 | 4.0 | 7.0 | 0.00 | 0.27 | 0.24 | 65 | 1014.8 |
| 20260903184418 | 83 | 202 | 4.0 | 6.0 | 0.00 | 0.28 | 0.24 | 65 | 1014.6 |
| 20260903184350 | 83 | 237 | 4.0 | 8.0 | 0.00 | 0.28 | 0.24 | 66 | 1014.7 |
| 20260903184305 | 83 | 237 | 4.0 | 9.0 | 0.00 | 0.28 | 0.24 | 64 | 1014.7 |
| 20260903184121 | 83 | 271 | 4.0 | 8.0 | 0.00 | 0.28 | 0.24 | 65 | 1014.7 |
| 20260903184016 | 83 | 258 | 4.0 | 6.0 | 0.00 | 0.28 | 0.24 | 65 | 1014.6 |
| 20260903183928 | 83 | 242 | 7.0 | 13.0 | 0.00 | 0.28 | 0.24 | 66 | 1014.7 |
| 20260903183824 | 83 | 245 | 6.0 | 10.0 | 0.00 | 0.28 | 0.24 | 66 | 1014.8 |
| 20260903183739 | 83 | 240 | 2.0 | 3.0 | 0.00 | 0.28 | 0.24 | 65 | 1014.8 |
| 20260903183631 | 83 | 244 | 3.0 | 4.0 | 0.00 | 0.28 | 0.24 | 66 | 1014.8 |
| 20260903183526 | 83 | 234 | 5.0 | 10.0 | 0.00 | 0.28 | 0.24 | 66 | 1014.9 |
| 20260903183421 | 83 | 240 | 4.0 | 7.0 | 0.00 | 0.28 | 0.24 | 67 | 1014.9 |
| 20260903183337 | 83 | 206 | 3.0 | 7.0 | 0.00 | 0.28 | 0.24 | 68 | 1015.0 |
| 20260903183308 | 83 | 238 | 6.0 | 9.0 | 0.00 | 0.28 | 0.24 | 68 | 1014.9 |
| 20260903183124 | 83 | 231 | 3.0 | 7.0 | 0.00 | 0.28 | 0.24 | 69 | 1014.9 |
| 20260903183020 | 83 | 228 | 3.0 | 6.0 | 0.00 | 0.28 | 0.24 | 68 | 1014.8 |
| 20260903182915 | 82 | 265 | 5.0 | 7.0 | 0.00 | 0.28 | 0.24 | 68 | 1014.9 |
| 20260903182827 | 82 | 240 | 6.0 | 10.0 | 0.00 | 0.28 | 0.24 | 68 | 1014.9 |
| 20260903182722 | 82 | 304 | 3.0 | 6.0 | 0.00 | 0.28 | 0.24 | 68 | 1014.8 |
| 20260903182618 | 82 | 246 | 7.0 | 9.0 | 0.00 | 0.28 | 0.24 | 68 | 1014.7 |
| 20260903182529 | 82 | 235 | 2.0 | 6.0 | 0.00 | 0.28 | 0.24 | 69 | 1014.9 |
| 20260903182425 | 82 | 260 | 3.0 | 6.0 | 0.00 | 0.28 | 0.24 | 67 | 1015.0 |
| 20260903182321 | 82 | 239 | 4.0 | 7.0 | 0.00 | 0.28 | 0.24 | 68 | 1015.0 |
| 20260903182216 | 82 | 228 | 3.0 | 8.0 | 0.00 | 0.28 | 0.24 | 70 | 1014.8 |
| 20260903182148 | 82 | 240 | 2.0 | 4.0 | 0.00 | 0.28 | 0.24 | 69 | 1015.0 |
| 20260903182023 | 82 | 253 | 5.0 | 8.0 | 0.00 | 0.28 | 0.24 | 68 | 1015.0 |
| 20260903181939 | 82 | 240 | 2.0 | 4.0 | 0.00 | 0.28 | 0.24 | 69 | 1015.0 |
| 20260903181851 | 82 | 247 | 5.0 | 10.0 | 0.00 | 0.28 | 0.24 | 69 | 1015.0 |
| 20260903181726 | 82 | 240 | 5.0 | 10.0 | 0.00 | 0.28 | 0.24 | 68 | 1015.2 |
| 20260903181622 | 82 | 237 | 4.0 | 6.0 | 0.00 | 0.28 | 0.24 | 68 | 1015.1 |
| 20260903181518 | 82 | 227 | 5.0 | 8.0 | 0.00 | 0.28 | 0.24 | 67 | 1015.1 |
| 20260903181429 | 82 | 230 | 6.0 | 9.0 | 0.00 | 0.28 | 0.24 | 68 | 1014.9 |
| 20260903181404 | 82 | 236 | 6.0 | 8.0 | 0.00 | 0.28 | 0.24 | 69 | 1015.0 |
| 20260903181219 | 82 | 236 | 4.0 | 6.0 | 0.00 | 0.28 | 0.24 | 70 | 1015.1 |
| 20260903181131 | 82 | 228 | 3.0 | 6.0 | 0.00 | 0.28 | 0.24 | 70 | 1015.1 |
| 20260903181107 | 82 | 197 | 1.0 | 4.0 | 0.00 | 0.28 | 0.24 | 72 | 1015.0 |
| 20260903180942 | 82 | 164 | 1.0 | 3.0 | 0.00 | 0.28 | 0.24 | 72 | 1015.0 |
| 20260903180818 | 82 | 197 | 3.0 | 4.0 | 0.00 | 0.28 | 0.24 | 72 | 1015.0 |
| 20260903180729 | 82 | 192 | 2.0 | 6.0 | 0.00 | 0.28 | 0.24 | 72 | 1015.0 |
| 20260903180625 | 82 | 158 | 2.0 | 3.0 | 0.00 | 0.28 | 0.24 | 72 | 1015.0 |
| 20260903180520 | 82 | 187 | 3.0 | 6.0 | 0.00 | 0.28 | 0.24 | 71 | 1015.0 |
| 20260903180416 | 82 | 237 | 4.0 | 8.0 | 0.00 | 0.28 | 0.24 | 71 | 1015.0 |
| 20260903180328 | 82 | 169 | 3.0 | 7.0 | 0.00 | 0.28 | 0.24 | 72 | 1014.9 |
| 20260903180223 | 82 | 217 | 2.0 | 4.0 | 0.00 | 0.28 | 0.24 | 72 | 1014.9 |
| 20260903180139 | 82 | 160 | 2.0 | 3.0 | 0.00 | 0.28 | 0.24 | 73 | 1015.0 |
| 20260903180030 | 82 | 156 | 2.0 | 4.0 | 0.00 | 0.28 | 0.24 | 74 | 1015.1 |
| 20260903175925 | 82 | 236 | 1.0 | 2.0 | 0.00 | 0.28 | 0.24 | 73 | 1015.1 |
| 20260903175821 | 82 | 233 | 2.0 | 3.0 | 0.00 | 0.28 | 0.24 | 73 | 1015.1 |
| 20260903175717 | 81 | 167 | 0.0 | 1.0 | 0.00 | 0.28 | 0.24 | 75 | 1015.0 |
| 20260903175628 | 81 | 167 | 1.0 | 2.0 | 0.00 | 0.28 | 0.24 | 74 | 1015.1 |
| 20260903175524 | 81 | 168 | 0.0 | 1.0 | 0.00 | 0.28 | 0.24 | 74 | 1015.2 |
| 20260903175419 | 81 | 169 | 2.0 | 3.0 | 0.00 | 0.28 | 0.24 | 74 | 1015.2 |
| 20260903175315 | 81 | 172 | 2.0 | 3.0 | 0.00 | 0.28 | 0.24 | 74 | 1015.0 |
| 20260903175227 | 81 | 238 | 1.0 | 1.0 | 0.00 | 0.28 | 0.24 | 73 | 1015.1 |
| 20260903175122 | 81 | 239 | 1.0 | 4.0 | 0.00 | 0.28 | 0.24 | 72 | 1015.2 |
| 20260903175018 | 81 | 237 | 1.0 | 3.0 | 0.00 | 0.28 | 0.24 | 72 | 1015.2 |
| 20260903174929 | 81 | 246 | 2.0 | 6.0 | 0.00 | 0.28 | 0.24 | 71 | 1015.3 |
| 20260903174825 | 81 | 236 | 4.0 | 7.0 | 0.00 | 0.28 | 0.24 | 71 | 1015.2 |
| 20260903174721 | 81 | 240 | 4.0 | 7.0 | 0.00 | 0.28 | 0.24 | 71 | 1015.2 |
| 20260903174636 | 81 | 231 | 2.0 | 3.0 | 0.00 | 0.28 | 0.24 | 71 | 1015.5 |
| 20260903174528 | 81 | 249 | 2.0 | 6.0 | 0.00 | 0.28 | 0.24 | 71 | 1015.3 |
| 20260903174423 | 81 | 244 | 4.0 | 8.0 | 0.00 | 0.28 | 0.24 | 71 | 1015.4 |
| 20260903174319 | 81 | 285 | 5.0 | 7.0 | 0.00 | 0.28 | 0.24 | 70 | 1015.3 |
| 20260903174231 | 81 | 281 | 5.0 | 8.0 | 0.00 | 0.28 | 0.24 | 70 | 1015.4 |
| 20260903174126 | 81 | 253 | 4.0 | 8.0 | 0.00 | 0.28 | 0.24 | 71 | 1015.5 |
| 20260903174021 | 81 | 251 | 4.0 | 7.0 | 0.00 | 0.28 | 0.24 | 71 | 1015.4 |
| 20260903173917 | 81 | 218 | 4.0 | 8.0 | 0.00 | 0.28 | 0.24 | 71 | 1015.2 |
| 20260903173909 | 81 | 226 | 2.0 | 4.0 | 0.00 | 0.28 | 0.24 | 71 | 1015.6 |
| 20260903173725 | 81 | 250 | 3.0 | 8.0 | 0.00 | 0.28 | 0.24 | 70 | 1015.6 |
| 20260903173620 | 81 | 237 | 5.0 | 7.0 | 0.00 | 0.28 | 0.24 | 70 | 1015.5 |
| 20260903173516 | 81 | 234 | 3.0 | 6.0 | 0.00 | 0.28 | 0.24 | 70 | 1015.6 |
| 20260903173428 | 81 | 289 | 3.0 | 7.0 | 0.00 | 0.28 | 0.24 | 70 | 1015.4 |
| 20260903173323 | 81 | 254 | 5.0 | 7.0 | 0.00 | 0.28 | 0.24 | 70 | 1015.5 |
| 20260903173219 | 81 | 248 | 6.0 | 8.0 | 0.00 | 0.28 | 0.24 | 71 | 1015.6 |
| 20260903173131 | 81 | 238 | 5.0 | 10.0 | 0.00 | 0.28 | 0.24 | 72 | 1015.5 |
| 20260903173026 | 81 | 268 | 3.0 | 7.0 | 0.00 | 0.28 | 0.24 | 72 | 1015.5 |
| 20260903172922 | 80 | 276 | 2.0 | 4.0 | 0.00 | 0.28 | 0.24 | 71 | 1015.5 |
| 20260903172817 | 80 | 291 | 4.0 | 8.0 | 0.00 | 0.28 | 0.24 | 71 | 1015.5 |
| 20260903172729 | 80 | 265 | 5.0 | 9.0 | 0.00 | 0.28 | 0.24 | 71 | 1015.7 |
| 20260903172625 | 81 | 236 | 3.0 | 6.0 | 0.00 | 0.28 | 0.24 | 70 | 1015.7 |
| 20260903172520 | 81 | 221 | 4.0 | 7.0 | 0.00 | 0.28 | 0.24 | 69 | 1015.6 |
| 20260903172416 | 81 | 238 | 7.0 | 15.0 | 0.00 | 0.28 | 0.24 | 70 | 1015.7 |
| 20260903172327 | 81 | 285 | 6.0 | 11.0 | 0.00 | 0.28 | 0.24 | 69 | 1015.5 |
| 20260903172223 | 81 | 226 | 5.0 | 11.0 | 0.00 | 0.28 | 0.24 | 71 | 1015.6 |
| 20260903172139 | 81 | 260 | 4.0 | 6.0 | 0.00 | 0.28 | 0.24 | 69 | 1015.8 |
| 20260903172110 | 81 | 218 | 5.0 | 9.0 | 0.00 | 0.28 | 0.24 | 70 | 1015.7 |
| 20260903171926 | 81 | 237 | 4.0 | 8.0 | 0.00 | 0.28 | 0.24 | 69 | 1015.7 |
| 20260903171821 | 81 | 225 | 6.0 | 10.0 | 0.00 | 0.28 | 0.24 | 72 | 1015.6 |
| 20260903171717 | 81 | 195 | 2.0 | 7.0 | 0.00 | 0.28 | 0.24 | 73 | 1015.7 |
| 20260903171649 | 81 | 183 | 1.0 | 3.0 | 0.00 | 0.28 | 0.24 | 73 | 1015.8 |
| 20260903171524 | 81 | 203 | 2.0 | 3.0 | 0.00 | 0.28 | 0.24 | 72 | 1015.8 |
| 20260903171420 | 81 | 233 | 4.0 | 9.0 | 0.00 | 0.28 | 0.24 | 72 | 1015.6 |
| 20260903171335 | 81 | 196 | 4.0 | 11.0 | 0.00 | 0.28 | 0.24 | 73 | 1015.7 |
| 20260903171227 | 81 | 166 | 3.0 | 8.0 | 0.00 | 0.28 | 0.24 | 73 | 1015.8 |
| 20260903171122 | 81 | 237 | 4.0 | 8.0 | 0.00 | 0.28 | 0.24 | 73 | 1015.8 |
| 20260903171018 | 81 | 337 | 3.0 | 7.0 | 0.00 | 0.28 | 0.24 | 72 | 1015.9 |
| 20260903171006 | 81 | 250 | 4.0 | 7.0 | 0.00 | 0.28 | 0.24 | 72 | 1015.6 |
| 20260903170721 | 81 | 253 | 5.0 | 8.0 | 0.00 | 0.28 | 0.24 | 72 | 1015.7 |
| 20260903170616 | 81 | 245 | 2.0 | 3.0 | 0.00 | 0.28 | 0.24 | 71 | 1015.7 |
| 20260903170528 | 81 | 235 | 3.0 | 6.0 | 0.00 | 0.28 | 0.24 | 71 | 1015.7 |
| 20260903170424 | 81 | 239 | 4.0 | 7.0 | 0.00 | 0.28 | 0.24 | 72 | 1015.8 |
| 20260903170319 | 81 | 194 | 1.0 | 2.0 | 0.00 | 0.28 | 0.24 | 73 | 1015.7 |
| 20260903170231 | 81 | 219 | 2.0 | 3.0 | 0.00 | 0.28 | 0.24 | 72 | 1015.9 |
| 20260903170126 | 81 | 259 | 5.0 | 10.0 | 0.00 | 0.28 | 0.24 | 71 | 1015.8 |
| 20260903170022 | 81 | 279 | 4.0 | 10.0 | 0.00 | 0.28 | 0.24 | 72 | 1015.9 |
| 20260903165917 | 81 | 236 | 4.0 | 7.0 | 0.00 | 0.28 | 0.24 | 72 | 1015.7 |
| 20260903165829 | 81 | 252 | 4.0 | 10.0 | 0.00 | 0.28 | 0.24 | 73 | 1016.0 |
| 20260903165724 | 81 | 233 | 2.0 | 7.0 | 0.00 | 0.28 | 0.24 | 73 | 1016.0 |
| 20260903165619 | 81 | 240 | 6.0 | 11.0 | 0.00 | 0.28 | 0.24 | 72 | 1015.9 |
| 20260903165551 | 81 | 226 | 4.0 | 8.0 | 0.00 | 0.28 | 0.24 | 74 | 1015.9 |
| 20260903165426 | 81 | 200 | 2.0 | 7.0 | 0.00 | 0.28 | 0.24 | 75 | 1016.0 |
| 20260903165321 | 81 | 252 | 3.0 | 7.0 | 0.00 | 0.28 | 0.24 | 73 | 1016.0 |
| 20260903165237 | 81 | 264 | 3.0 | 6.0 | 0.00 | 0.28 | 0.24 | 72 | 1015.9 |
| 20260903165129 | 81 | 227 | 2.0 | 3.0 | 0.00 | 0.28 | 0.24 | 72 | 1016.1 |
| 20260903165044 | 81 | 243 | 6.0 | 10.0 | 0.00 | 0.28 | 0.24 | 72 | 1016.0 |
| 20260903164920 | 81 | 251 | 4.0 | 4.0 | 0.00 | 0.28 | 0.24 | 74 | 1016.2 |
| 20260903164815 | 81 | 163 | 2.0 | 4.0 | 0.00 | 0.28 | 0.24 | 75 | 1015.9 |
| 20260903164727 | 81 | 167 | 1.0 | 1.0 | 0.00 | 0.28 | 0.24 | 74 | 1016.0 |
| 20260903164623 | 81 | 208 | 1.0 | 2.0 | 0.00 | 0.28 | 0.24 | 73 | 1016.0 |
| 20260903164558 | 81 | 246 | 1.0 | 1.0 | 0.00 | 0.28 | 0.24 | 73 | 1015.9 |
| 20260903164430 | 81 | 249 | 3.0 | 6.0 | 0.00 | 0.28 | 0.24 | 72 | 1016.1 |
| 20260903164325 | 81 | 248 | 3.0 | 6.0 | 0.00 | 0.28 | 0.24 | 71 | 1016.1 |
| 20260903164221 | 81 | 228 | 5.0 | 8.0 | 0.00 | 0.28 | 0.24 | 71 | 1016.0 |
| 20260903164117 | 81 | 230 | 5.0 | 8.0 | 0.00 | 0.28 | 0.24 | 73 | 1015.8 |
| 20260903164028 | 81 | 265 | 4.0 | 11.0 | 0.00 | 0.28 | 0.24 | 73 | 1016.0 |
| 20260903163923 | 81 | 256 | 2.0 | 3.0 | 0.00 | 0.28 | 0.24 | 72 | 1016.0 |
| 20260903163839 | 81 | 246 | 4.0 | 7.0 | 0.00 | 0.28 | 0.24 | 71 | 1016.0 |
| 20260903163731 | 81 | 254 | 6.0 | 9.0 | 0.00 | 0.28 | 0.24 | 72 | 1015.8 |
| 20260903163626 | 80 | 237 | 3.0 | 4.0 | 0.00 | 0.28 | 0.24 | 74 | 1016.0 |
| 20260903163522 | 80 | 294 | 1.0 | 2.0 | 0.00 | 0.28 | 0.24 | 74 | 1016.0 |
| 20260903163418 | 80 | 241 | 2.0 | 3.0 | 0.00 | 0.28 | 0.24 | 72 | 1016.0 |
| 20260903163329 | 80 | 191 | 2.0 | 6.0 | 0.00 | 0.28 | 0.24 | 72 | 1016.0 |
| 20260903163225 | 80 | 230 | 3.0 | 6.0 | 0.00 | 0.28 | 0.24 | 72 | 1016.1 |
| 20260903163120 | 80 | 268 | 5.0 | 7.0 | 0.00 | 0.28 | 0.24 | 74 | 1016.1 |
| 20260903163016 | 80 | 285 | 3.0 | 8.0 | 0.00 | 0.28 | 0.24 | 73 | 1016.2 |
| 20260903162927 | 80 | 259 | 2.0 | 3.0 | 0.00 | 0.28 | 0.24 | 73 | 1016.1 |
| 20260903162823 | 80 | 232 | 4.0 | 7.0 | 0.00 | 0.28 | 0.24 | 74 | 1016.0 |
| 20260903162738 | 80 | 272 | 4.0 | 8.0 | 0.00 | 0.28 | 0.24 | 73 | 1016.2 |
| 20260903162630 | 80 | 231 | 3.0 | 7.0 | 0.00 | 0.28 | 0.24 | 73 | 1016.2 |
| 20260903162625 | 80 | 250 | 7.0 | 13.0 | 0.00 | 0.28 | 0.24 | 73 | 1016.2 |
| 20260903162441 | 80 | 250 | 4.0 | 8.0 | 0.00 | 0.28 | 0.24 | 73 | 1016.2 |
| 20260903162316 | 80 | 236 | 4.0 | 7.0 | 0.00 | 0.28 | 0.24 | 73 | 1016.3 |
| 20260903162308 | 80 | 228 | 5.0 | 8.0 | 0.00 | 0.28 | 0.24 | 73 | 1016.4 |
| 20260903162143 | 80 | 241 | 6.0 | 8.0 | 0.00 | 0.28 | 0.24 | 73 | 1016.4 |
| 20260903162019 | 80 | 240 | 7.0 | 14.0 | 0.00 | 0.28 | 0.24 | 72 | 1016.2 |
| 20260903161930 | 80 | 258 | 6.0 | 9.0 | 0.00 | 0.28 | 0.24 | 73 | 1016.2 |
| 20260903161826 | 80 | 225 | 3.0 | 8.0 | 0.00 | 0.28 | 0.24 | 74 | 1016.4 |
| 20260903161722 | 79 | 229 | 9.0 | 19.0 | 0.00 | 0.28 | 0.24 | 72 | 1016.4 |
| 20260903161617 | 79 | 255 | 6.0 | 9.0 | 0.00 | 0.28 | 0.24 | 75 | 1016.6 |
| 20260903161529 | 79 | 268 | 6.0 | 13.0 | 0.00 | 0.28 | 0.24 | 76 | 1016.5 |
| 20260903161424 | 79 | 243 | 3.0 | 6.0 | 0.00 | 0.28 | 0.24 | 77 | 1016.5 |
| 20260903161320 | 79 | 213 | 2.0 | 2.0 | 0.00 | 0.28 | 0.24 | 77 | 1016.2 |
| 20260903161216 | 79 | 211 | 3.0 | 8.0 | 0.00 | 0.28 | 0.24 | 78 | 1016.4 |
| 20260903161127 | 79 | 210 | 2.0 | 4.0 | 0.00 | 0.28 | 0.24 | 77 | 1016.4 |
| 20260903161023 | 79 | 218 | 5.0 | 9.0 | 0.00 | 0.28 | 0.24 | 76 | 1016.6 |
| 20260903160918 | 79 | 245 | 6.0 | 10.0 | 0.00 | 0.28 | 0.24 | 76 | 1016.6 |
| 20260903160830 | 79 | 214 | 2.0 | 4.0 | 0.00 | 0.28 | 0.24 | 76 | 1016.5 |
| 20260903160726 | 79 | 250 | 4.0 | 8.0 | 0.00 | 0.28 | 0.24 | 75 | 1016.5 |
| 20260903160621 | 79 | 229 | 5.0 | 8.0 | 0.00 | 0.28 | 0.24 | 76 | 1016.4 |
| 20260903160517 | 79 | 239 | 9.0 | 15.0 | 0.00 | 0.28 | 0.24 | 77 | 1016.7 |
| 20260903160428 | 79 | 310 | 3.0 | 7.0 | 0.00 | 0.28 | 0.24 | 78 | 1016.5 |
| 20260903160324 | 79 | 208 | 2.0 | 3.0 | 0.00 | 0.28 | 0.24 | 78 | 1016.6 |
| 20260903160219 | 79 | 253 | 5.0 | 7.0 | 0.00 | 0.28 | 0.24 | 76 | 1016.6 |
| 20260903160115 | 79 | 230 | 6.0 | 10.0 | 0.00 | 0.28 | 0.24 | 77 | 1016.5 |
| 20260903160047 | 79 | 238 | 4.0 | 10.0 | 0.00 | 0.28 | 0.24 | 77 | 1016.6 |
| 20260903155922 | 79 | 236 | 4.0 | 7.0 | 0.00 | 0.28 | 0.24 | 76 | 1016.6 |
| 20260903155858 | 79 | 228 | 4.0 | 7.0 | 0.00 | 0.28 | 0.24 | 78 | 1016.8 |
| 20260903155729 | 79 | 233 | 2.0 | 4.0 | 0.00 | 0.28 | 0.24 | 78 | 1016.6 |
| 20260903155625 | 78 | 202 | 5.0 | 13.0 | 0.00 | 0.28 | 0.24 | 77 | 1016.4 |
| 20260903155520 | 78 | 230 | 3.0 | 7.0 | 0.00 | 0.28 | 0.24 | 77 | 1016.6 |
| 20260903155416 | 78 | 244 | 4.0 | 8.0 | 0.00 | 0.28 | 0.24 | 77 | 1016.4 |
| 20260903155328 | 78 | 278 | 3.0 | 7.0 | 0.00 | 0.28 | 0.24 | 77 | 1016.5 |
| 20260903155223 | 78 | 245 | 3.0 | 6.0 | 0.00 | 0.28 | 0.24 | 77 | 1016.6 |
| 20260903155139 | 78 | 243 | 5.0 | 9.0 | 0.00 | 0.28 | 0.24 | 77 | 1016.7 |
| 20260903155031 | 78 | 241 | 4.0 | 9.0 | 0.00 | 0.28 | 0.24 | 77 | 1016.5 |
| 20260903154926 | 78 | 267 | 4.0 | 8.0 | 0.00 | 0.28 | 0.24 | 77 | 1016.8 |
| 20260903154822 | 78 | 255 | 3.0 | 6.0 | 0.00 | 0.28 | 0.24 | 78 | 1016.7 |
| 20260903154717 | 78 | 223 | 2.0 | 3.0 | 0.00 | 0.28 | 0.24 | 78 | 1016.6 |
| 20260903154629 | 78 | 234 | 2.0 | 3.0 | 0.00 | 0.28 | 0.24 | 76 | 1016.7 |
| 20260903154524 | 78 | 236 | 3.0 | 7.0 | 0.00 | 0.28 | 0.24 | 76 | 1016.7 |
| 20260903154440 | 78 | 235 | 3.0 | 6.0 | 0.00 | 0.28 | 0.24 | 76 | 1016.7 |
| 20260903154315 | 78 | 219 | 3.0 | 8.0 | 0.00 | 0.28 | 0.24 | 76 | 1016.6 |
| 20260903154227 | 78 | 249 | 5.0 | 8.0 | 0.00 | 0.28 | 0.24 | 77 | 1016.7 |
| 20260903154123 | 78 | 241 | 4.0 | 8.0 | 0.00 | 0.28 | 0.24 | 77 | 1016.8 |
| 20260903154038 | 78 | 226 | 3.0 | 4.0 | 0.00 | 0.28 | 0.24 | 76 | 1017.0 |
| 20260903153930 | 78 | 240 | 4.0 | 7.0 | 0.00 | 0.28 | 0.24 | 77 | 1016.9 |
| 20260903153825 | 78 | 258 | 3.0 | 4.0 | 0.00 | 0.28 | 0.24 | 78 | 1016.8 |
| 20260903153721 | 78 | 235 | 3.0 | 4.0 | 0.00 | 0.28 | 0.24 | 77 | 1016.8 |
| 20260903153616 | 78 | 248 | 2.0 | 3.0 | 0.00 | 0.28 | 0.24 | 78 | 1016.8 |
| 20260903153528 | 78 | 237 | 1.0 | 2.0 | 0.00 | 0.28 | 0.24 | 78 | 1016.8 |
| 20260903153424 | 78 | 219 | 2.0 | 4.0 | 0.00 | 0.28 | 0.24 | 78 | 1016.8 |
| 20260903153340 | 78 | 217 | 4.0 | 8.0 | 0.00 | 0.28 | 0.24 | 76 | 1016.8 |
| 20260903153215 | 78 | 249 | 6.0 | 13.0 | 0.00 | 0.28 | 0.24 | 76 | 1017.0 |
| 20260903153127 | 78 | 236 | 3.0 | 9.0 | 0.00 | 0.28 | 0.24 | 78 | 1017.0 |
| 20260903153022 | 78 | 224 | 4.0 | 7.0 | 0.00 | 0.28 | 0.24 | 77 | 1017.0 |
| 20260903152918 | 78 | 273 | 3.0 | 6.0 | 0.00 | 0.28 | 0.24 | 78 | 1016.9 |
| 20260903152849 | 78 | 236 | 3.0 | 6.0 | 0.00 | 0.28 | 0.24 | 78 | 1016.9 |
| 20260903152725 | 78 | 209 | 4.0 | 7.0 | 0.00 | 0.28 | 0.24 | 80 | 1017.0 |
| 20260903152640 | 78 | 198 | 3.0 | 6.0 | 0.00 | 0.28 | 0.24 | 77 | 1016.9 |
| 20260903152556 | 78 | 247 | 3.0 | 6.0 | 0.00 | 0.28 | 0.24 | 77 | 1017.0 |
| 20260903152428 | 78 | 240 | 3.0 | 4.0 | 0.00 | 0.28 | 0.24 | 76 | 1017.1 |
| 20260903152323 | 78 | 255 | 7.0 | 10.0 | 0.00 | 0.28 | 0.24 | 78 | 1017.0 |
| 20260903152231 | 78 | 250 | 5.0 | 9.0 | 0.00 | 0.28 | 0.24 | 79 | 1017.2 |
| 20260903152046 | 78 | 235 | 2.0 | 4.0 | 0.00 | 0.28 | 0.24 | 79 | 1017.2 |
| 20260903151921 | 78 | 229 | 3.0 | 6.0 | 0.00 | 0.28 | 0.24 | 78 | 1017.2 |
| 20260903151817 | 78 | 246 | 2.0 | 4.0 | 0.00 | 0.28 | 0.24 | 77 | 1017.3 |
| 20260903151728 | 78 | 259 | 4.0 | 7.0 | 0.00 | 0.28 | 0.24 | 78 | 1017.1 |
| 20260903151624 | 78 | 230 | 3.0 | 6.0 | 0.00 | 0.28 | 0.24 | 79 | 1017.2 |
| 20260903151520 | 78 | 251 | 4.0 | 7.0 | 0.00 | 0.28 | 0.24 | 77 | 1017.0 |
| 20260903151415 | 78 | 259 | 4.0 | 7.0 | 0.00 | 0.28 | 0.24 | 77 | 1017.1 |
| 20260903151327 | 78 | 239 | 5.0 | 8.0 | 0.00 | 0.28 | 0.24 | 77 | 1017.1 |
| 20260903151242 | 78 | 229 | 4.0 | 7.0 | 0.00 | 0.28 | 0.24 | 77 | 1017.2 |
| 20260903151118 | 78 | 234 | 4.0 | 8.0 | 0.00 | 0.28 | 0.24 | 77 | 1017.2 |
| 20260903151049 | 78 | 240 | 6.0 | 9.0 | 0.00 | 0.28 | 0.24 | 78 | 1017.2 |
| 20260903150924 | 78 | 227 | 4.0 | 7.0 | 0.00 | 0.28 | 0.24 | 77 | 1017.2 |
| 20260903150820 | 78 | 264 | 7.0 | 10.0 | 0.00 | 0.28 | 0.24 | 78 | 1017.0 |
| 20260903150735 | 78 | 242 | 4.0 | 7.0 | 0.00 | 0.28 | 0.24 | 79 | 1017.1 |
| 20260903150627 | 78 | 251 | 3.0 | 6.0 | 0.00 | 0.28 | 0.24 | 79 | 1017.1 |
| 20260903150523 | 78 | 253 | 4.0 | 8.0 | 0.00 | 0.28 | 0.24 | 79 | 1017.2 |
| 20260903150418 | 78 | 257 | 2.0 | 4.0 | 0.00 | 0.28 | 0.24 | 79 | 1017.2 |
| 20260903150330 | 78 | 237 | 3.0 | 4.0 | 0.00 | 0.28 | 0.24 | 79 | 1017.1 |
| 20260903150225 | 78 | 220 | 4.0 | 7.0 | 0.00 | 0.28 | 0.24 | 79 | 1017.1 |
| 20260903150121 | 78 | 237 | 2.0 | 4.0 | 0.00 | 0.28 | 0.24 | 81 | 1017.0 |
| 20260903150016 | 78 | 231 | 1.0 | 4.0 | 0.00 | 0.28 | 0.24 | 80 | 1017.1 |
| 20260903145928 | 78 | 282 | 2.0 | 4.0 | 0.00 | 0.28 | 0.24 | 80 | 1016.9 |
| 20260903145824 | 78 | 278 | 3.0 | 4.0 | 0.00 | 0.28 | 0.24 | 80 | 1016.9 |
| 20260903145719 | 78 | 284 | 6.0 | 7.0 | 0.00 | 0.28 | 0.24 | 78 | 1016.8 |
| 20260903145655 | 78 | 239 | 6.0 | 8.0 | 0.00 | 0.28 | 0.24 | 78 | 1017.1 |
| 20260903145527 | 78 | 238 | 3.0 | 4.0 | 0.00 | 0.28 | 0.24 | 79 | 1016.8 |
| 20260903145422 | 78 | 236 | 3.0 | 6.0 | 0.00 | 0.28 | 0.24 | 82 | 1016.8 |
| 20260903145318 | 78 | 274 | 1.0 | 1.0 | 0.00 | 0.28 | 0.24 | 82 | 1016.7 |
| 20260903145229 | 78 | 256 | 3.0 | 6.0 | 0.00 | 0.28 | 0.24 | 83 | 1016.8 |
| 20260903145125 | 78 | 217 | 1.0 | 2.0 | 0.00 | 0.28 | 0.24 | 83 | 1016.6 |
| 20260903145020 | 77 | 197 | 1.0 | 2.0 | 0.00 | 0.28 | 0.24 | 80 | 1016.6 |
| 20260903144916 | 77 | 228 | 6.0 | 10.0 | 0.00 | 0.28 | 0.24 | 80 | 1016.7 |
| 20260903144827 | 77 | 216 | 3.0 | 9.0 | 0.00 | 0.28 | 0.24 | 81 | 1016.8 |
| 20260903144723 | 77 | 223 | 1.0 | 2.0 | 0.00 | 0.28 | 0.24 | 80 | 1017.1 |
| 20260903144618 | 77 | 220 | 6.0 | 9.0 | 0.00 | 0.28 | 0.24 | 79 | 1017.1 |
| 20260903144530 | 78 | 270 | 4.0 | 9.0 | 0.00 | 0.28 | 0.24 | 79 | 1017.3 |
| 20260903144426 | 78 | 237 | 6.0 | 11.0 | 0.00 | 0.28 | 0.24 | 81 | 1017.2 |
| 20260903144321 | 78 | 233 | 3.0 | 4.0 | 0.00 | 0.28 | 0.24 | 81 | 1017.2 |
| 20260903144217 | 78 | 237 | 4.0 | 8.0 | 0.00 | 0.28 | 0.24 | 81 | 1017.3 |
| 20260903144128 | 78 | 257 | 6.0 | 8.0 | 0.00 | 0.28 | 0.24 | 81 | 1017.1 |
| 20260903144024 | 78 | 226 | 2.0 | 4.0 | 0.00 | 0.28 | 0.24 | 84 | 1017.0 |
| 20260903143919 | 78 | 199 | 2.0 | 4.0 | 0.00 | 0.28 | 0.24 | 85 | 1017.0 |
| 20260903143815 | 77 | 246 | 2.0 | 3.0 | 0.00 | 0.28 | 0.24 | 83 | 1017.1 |
| 20260903143727 | 77 | 244 | 3.0 | 6.0 | 0.00 | 0.28 | 0.24 | 81 | 1016.9 |
| 20260903143622 | 77 | 214 | 3.0 | 6.0 | 0.00 | 0.28 | 0.24 | 83 | 1016.9 |
| 20260903143518 | 77 | 223 | 2.0 | 2.0 | 0.00 | 0.28 | 0.24 | 83 | 1016.9 |
| 20260903143430 | 77 | 261 | 4.0 | 9.0 | 0.00 | 0.28 | 0.24 | 83 | 1016.9 |
| 20260903143325 | 77 | 237 | 1.0 | 2.0 | 0.00 | 0.28 | 0.24 | 83 | 1016.8 |
| 20260903143221 | 77 | 226 | 2.0 | 6.0 | 0.00 | 0.28 | 0.24 | 83 | 1016.8 |
| 20260903143116 | 77 | 229 | 2.0 | 4.0 | 0.00 | 0.28 | 0.24 | 82 | 1017.1 |
| 20260903143028 | 77 | 231 | 3.0 | 6.0 | 0.00 | 0.28 | 0.24 | 80 | 1017.1 |
| 20260903142923 | 77 | 232 | 5.0 | 8.0 | 0.00 | 0.28 | 0.24 | 82 | 1017.1 |
| 20260903142819 | 78 | 244 | 2.0 | 4.0 | 0.00 | 0.28 | 0.24 | 83 | 1016.8 |
| 20260903142731 | 78 | 240 | 2.0 | 3.0 | 0.00 | 0.28 | 0.24 | 82 | 1016.7 |
| 20260903142626 | 78 | 233 | 3.0 | 8.0 | 0.00 | 0.28 | 0.24 | 81 | 1016.8 |
| 20260903142522 | 78 | 244 | 5.0 | 8.0 | 0.00 | 0.28 | 0.24 | 85 | 1016.8 |
| 20260903142437 | 78 | 276 | 2.0 | 4.0 | 0.00 | 0.28 | 0.24 | 84 | 1016.8 |
| 20260903142329 | 77 | 265 | 2.0 | 4.0 | 0.00 | 0.28 | 0.24 | 86 | 1016.6 |
| 20260903142224 | 77 | 234 | 1.0 | 2.0 | 0.00 | 0.28 | 0.24 | 85 | 1016.8 |
| 20260903142120 | 77 | 235 | 2.0 | 6.0 | 0.00 | 0.28 | 0.24 | 86 | 1016.7 |
| 20260903142036 | 77 | 236 | 1.0 | 1.0 | 0.00 | 0.28 | 0.24 | 86 | 1016.5 |
| 20260903141927 | 77 | 241 | 2.0 | 3.0 | 0.00 | 0.28 | 0.24 | 86 | 1016.7 |
| 20260903141823 | 77 | 266 | 1.0 | 2.0 | 0.00 | 0.28 | 0.24 | 88 | 1016.6 |
| 20260903141718 | 77 | 266 | 0.0 | 1.0 | 0.00 | 0.28 | 0.24 | 89 | 1016.5 |
| 20260903141650 | 77 | 266 | 1.0 | 1.0 | 0.00 | 0.28 | 0.24 | 89 | 1016.5 |
| 20260903141525 | 77 | 266 | 1.0 | 2.0 | 0.00 | 0.28 | 0.24 | 89 | 1016.6 |
| 20260903141421 | 76 | 261 | 0.0 | 1.0 | 0.00 | 0.28 | 0.24 | 87 | 1016.6 |
| 20260903141317 | 76 | 261 | 1.0 | 1.0 | 0.00 | 0.28 | 0.24 | 86 | 1016.7 |
| 20260903141228 | 76 | 262 | 2.0 | 3.0 | 0.00 | 0.28 | 0.24 | 86 | 1016.9 |
| 20260903141124 | 76 | 231 | 2.0 | 4.0 | 0.00 | 0.28 | 0.24 | 88 | 1016.8 |
| 20260903141020 | 76 | 230 | 1.0 | 2.0 | 0.00 | 0.28 | 0.24 | 87 | 1016.8 |
| 20260903140915 | 76 | 237 | 3.0 | 4.0 | 0.00 | 0.28 | 0.24 | 87 | 1016.9 |
| 20260903140827 | 76 | 240 | 2.0 | 4.0 | 0.00 | 0.28 | 0.24 | 84 | 1017.1 |
| 20260903140722 | 76 | 227 | 6.0 | 9.0 | 0.00 | 0.28 | 0.24 | 85 | 1017.0 |
| 20260903140618 | 76 | 259 | 3.0 | 3.0 | 0.00 | 0.28 | 0.24 | 88 | 1016.8 |
| 20260903140530 | 76 | 187 | 2.0 | 4.0 | 0.00 | 0.28 | 0.24 | 87 | 1016.8 |
| 20260903140425 | 76 | 286 | 2.0 | 4.0 | 0.00 | 0.28 | 0.24 | 85 | 1016.9 |
| 20260903140341 | 76 | 232 | 4.0 | 7.0 | 0.00 | 0.28 | 0.24 | 86 | 1016.9 |
| 20260903140236 | 76 | 223 | 2.0 | 6.0 | 0.00 | 0.28 | 0.24 | 88 | 1016.7 |
| 20260903140128 | 76 | 232 | 3.0 | 6.0 | 0.00 | 0.28 | 0.24 | 88 | 1016.8 |
| 20260903140023 | 76 | 228 | 3.0 | 7.0 | 0.00 | 0.28 | 0.24 | 88 | 1016.7 |
| 20260903135919 | 76 | 225 | 3.0 | 4.0 | 0.00 | 0.28 | 0.24 | 89 | 1016.7 |
| 20260903135830 | 75 | 241 | 2.0 | 2.0 | 0.00 | 0.28 | 0.24 | 90 | 1016.7 |
| 20260903135726 | 75 | 240 | 3.0 | 4.0 | 0.00 | 0.28 | 0.24 | 88 | 1016.8 |
| 20260903135622 | 75 | 237 | 4.0 | 7.0 | 0.00 | 0.28 | 0.24 | 90 | 1016.8 |
| 20260903135517 | 75 | 243 | 2.0 | 4.0 | 0.00 | 0.28 | 0.24 | 92 | 1016.8 |
| 20260903135449 | 75 | 267 | 1.0 | 2.0 | 0.00 | 0.28 | 0.24 | 92 | 1016.8 |
| 20260903135325 | 74 | 243 | 1.0 | 3.0 | 0.00 | 0.28 | 0.24 | 94 | 1016.8 |
| 20260903135220 | 74 | 235 | 1.0 | 1.0 | 0.00 | 0.28 | 0.24 | 91 | 1016.8 |
| 20260903135116 | 74 | 235 | 2.0 | 6.0 | 0.00 | 0.28 | 0.24 | 93 | 1016.8 |
| 20260903135027 | 74 | 252 | 2.0 | 3.0 | 0.00 | 0.28 | 0.24 | 93 | 1016.9 |
| 20260903134923 | 74 | 310 | 2.0 | 4.0 | 0.00 | 0.28 | 0.24 | 93 | 1016.8 |
| 20260903134818 | 73 | 210 | 1.0 | 2.0 | 0.00 | 0.28 | 0.24 | 94 | 1016.8 |
| 20260903134730 | 73 | 207 | 1.0 | 3.0 | 0.00 | 0.28 | 0.24 | 94 | 1016.8 |
| 20260903134625 | 73 | 236 | 2.0 | 2.0 | 0.00 | 0.28 | 0.24 | 94 | 1017.0 |
| 20260903134521 | 73 | 249 | 3.0 | 4.0 | 0.00 | 0.28 | 0.24 | 94 | 1016.9 |
| 20260903134416 | 73 | 238 | 1.0 | 6.0 | 0.00 | 0.28 | 0.24 | 94 | 1016.9 |
| 20260903134348 | 73 | 194 | 1.0 | 2.0 | 0.00 | 0.28 | 0.24 | 94 | 1016.9 |
| 20260903134224 | 73 | 173 | 3.0 | 4.0 | 0.00 | 0.28 | 0.24 | 95 | 1016.9 |
| 20260903134120 | 73 | 168 | 1.0 | 4.0 | 0.00 | 0.28 | 0.24 | 95 | 1016.9 |
| 20260903134031 | 73 | 203 | 2.0 | 4.0 | 0.00 | 0.28 | 0.24 | 95 | 1016.9 |
| 20260903133946 | 73 | 240 | 2.0 | 4.0 | 0.00 | 0.28 | 0.24 | 95 | 1017.1 |
| 20260903133822 | 73 | 224 | 2.0 | 4.0 | 0.00 | 0.28 | 0.24 | 95 | 1016.9 |
| 20260903133758 | 73 | 244 | 4.0 | 7.0 | 0.00 | 0.28 | 0.24 | 96 | 1016.8 |
| 20260903133630 | 73 | 247 | 2.0 | 4.0 | 0.00 | 0.28 | 0.24 | 97 | 1016.9 |
| 20260903133525 | 72 | 242 | 2.0 | 3.0 | 0.00 | 0.28 | 0.24 | 97 | 1016.9 |
| 20260903133421 | 72 | 194 | 1.0 | 2.0 | 0.00 | 0.28 | 0.24 | 97 | 1016.8 |
| 20260903133316 | 72 | 188 | 0.0 | 2.0 | 0.00 | 0.28 | 0.24 | 97 | 1016.8 |
| 20260903133228 | 72 | 187 | 1.0 | 2.0 | 0.00 | 0.28 | 0.24 | 97 | 1016.9 |
| 20260903133124 | 72 | 204 | 1.0 | 2.0 | 0.00 | 0.28 | 0.24 | 96 | 1017.0 |
| 20260903133019 | 72 | 237 | 0.0 | 1.0 | 0.00 | 0.28 | 0.24 | 96 | 1017.0 |
| 20260903133011 | 72 | 237 | 2.0 | 2.0 | 0.00 | 0.28 | 0.24 | 97 | 1016.9 |
| 20260903132826 | 72 | 235 | 2.0 | 6.0 | 0.00 | 0.28 | 0.24 | 97 | 1017.1 |
| 20260903132722 | 72 | 238 | 2.0 | 4.0 | 0.00 | 0.28 | 0.24 | 98 | 1016.9 |
| 20260903132638 | 72 | 236 | 2.0 | 2.0 | 0.00 | 0.28 | 0.24 | 98 | 1017.2 |
| 20260903132529 | 72 | 239 | 1.0 | 3.0 | 0.00 | 0.28 | 0.24 | 98 | 1016.9 |
| 20260903132425 | 72 | 225 | 0.0 | 1.0 | 0.00 | 0.28 | 0.24 | 98 | 1016.9 |
| 20260903132320 | 71 | 225 | 1.0 | 1.0 | 0.00 | 0.28 | 0.24 | 98 | 1017.0 |
| 20260903132236 | 71 | 224 | 0.0 | 1.0 | 0.00 | 0.28 | 0.24 | 98 | 1017.0 |
| 20260903132127 | 71 | 224 | 0.0 | 1.0 | 0.00 | 0.28 | 0.24 | 98 | 1016.8 |
| 20260903132023 | 71 | 225 | 0.0 | 2.0 | 0.00 | 0.28 | 0.24 | 98 | 1016.8 |
| 20260903131919 | 71 | 223 | 0.0 | 1.0 | 0.00 | 0.28 | 0.24 | 98 | 1016.8 |
| 20260903131830 | 71 | 215 | 1.0 | 2.0 | 0.00 | 0.28 | 0.24 | 98 | 1016.9 |
| 20260903131726 | 71 | 156 | 1.0 | 2.0 | 0.00 | 0.28 | 0.24 | 98 | 1017.0 |
| 20260903131622 | 71 | 153 | 1.0 | 2.0 | 0.00 | 0.28 | 0.24 | 98 | 1016.9 |
| 20260903131517 | 71 | 154 | 1.0 | 2.0 | 0.00 | 0.28 | 0.24 | 98 | 1017.0 |
| 20260903131429 | 71 | 163 | 1.0 | 2.0 | 0.00 | 0.28 | 0.24 | 98 | 1016.9 |
| 20260903131325 | 71 | 234 | 1.0 | 2.0 | 0.00 | 0.28 | 0.24 | 98 | 1017.0 |
| 20260903131240 | 71 | 235 | 1.0 | 2.0 | 0.00 | 0.29 | 0.24 | 98 | 1017.0 |
| 20260903131147 | 71 | 234 | 1.0 | 1.0 | 0.00 | 0.29 | 0.24 | 98 | 1016.8 |
| 20260903130922 | 70 | 168 | 1.0 | 1.0 | 0.00 | 0.29 | 0.24 | 98 | 1017.0 |
| 20260903130818 | 70 | 0.0 | 0.0 | 0.00 | 0.29 | 0.24 | 98 | 1017.0 | |
| 20260903130730 | 70 | 169 | 0.0 | 1.0 | 0.00 | 0.29 | 0.24 | 98 | 1016.9 |
| 20260903130625 | 70 | 170 | 1.0 | 3.0 | 0.00 | 0.29 | 0.24 | 98 | 1016.8 |
| 20260903130521 | 70 | 175 | 1.0 | 1.0 | 0.00 | 0.29 | 0.24 | 98 | 1016.7 |
| 20260903130416 | 70 | 175 | 1.0 | 1.0 | 0.00 | 0.29 | 0.24 | 98 | 1017.0 |
| 20260903130328 | 70 | 175 | 1.0 | 2.0 | 0.00 | 0.29 | 0.24 | 98 | 1017.0 |
| 20260903130223 | 70 | 178 | 1.0 | 2.0 | 0.00 | 0.29 | 0.24 | 98 | 1017.0 |
| 20260903130119 | 70 | 183 | 1.0 | 2.0 | 0.00 | 0.29 | 0.24 | 98 | 1017.0 |
| 20260903130031 | 70 | 190 | 1.0 | 2.0 | 0.00 | 0.29 | 0.24 | 98 | 1016.8 |
| 20260903125946 | 70 | 229 | 1.0 | 2.0 | 0.00 | 0.29 | 0.24 | 98 | 1017.0 |
| 20260903125842 | 70 | 244 | 1.0 | 1.0 | 0.00 | 0.29 | 0.24 | 98 | 1017.0 |
| 20260903125716 | 70 | 244 | 1.0 | 1.0 | 0.00 | 0.29 | 0.24 | 98 | 1017.0 |
| 20260903125627 | 70 | 244 | 0.0 | 1.0 | 0.00 | 0.29 | 0.24 | 98 | 1017.0 |
| 20260903125523 | 70 | 244 | 0.0 | 1.0 | 0.00 | 0.29 | 0.24 | 98 | 1017.0 |
| 20260903125438 | 70 | 0.0 | 0.0 | 0.00 | 0.29 | 0.24 | 98 | 1017.0 | |
| 20260903125330 | 70 | 244 | 1.0 | 2.0 | 0.00 | 0.29 | 0.24 | 98 | 1016.9 |
| 20260903125226 | 70 | 245 | 0.0 | 1.0 | 0.00 | 0.29 | 0.24 | 98 | 1016.9 |
| 20260903125121 | 70 | 245 | 1.0 | 1.0 | 0.00 | 0.29 | 0.24 | 98 | 1016.9 |
| 20260903125017 | 70 | 245 | 1.0 | 1.0 | 0.00 | 0.29 | 0.24 | 98 | 1016.9 |
| 20260903124929 | 70 | 244 | 1.0 | 3.0 | 0.00 | 0.29 | 0.24 | 98 | 1017.1 |
| 20260903124844 | 70 | 237 | 1.0 | 2.0 | 0.00 | 0.29 | 0.24 | 98 | 1017.1 |
| 20260903124720 | 70 | 0.0 | 0.0 | 0.00 | 0.29 | 0.24 | 98 | 1017.1 | |
| 20260903124615 | 70 | 236 | 1.0 | 3.0 | 0.00 | 0.29 | 0.24 | 98 | 1017.0 |
| 20260903124527 | 70 | 229 | 2.0 | 3.0 | 0.00 | 0.29 | 0.24 | 99 | 1017.0 |
| 20260903124423 | 70 | 164 | 0.0 | 1.0 | 0.00 | 0.29 | 0.24 | 99 | 1016.9 |
| 20260903124318 | 70 | 162 | 0.0 | 1.0 | 0.00 | 0.29 | 0.24 | 99 | 1016.8 |
| 20260903124230 | 70 | 162 | 1.0 | 2.0 | 0.00 | 0.29 | 0.24 | 99 | 1016.9 |
| 20260903124125 | 70 | 158 | 0.0 | 1.0 | 0.00 | 0.29 | 0.24 | 99 | 1016.9 |
| 20260903124021 | 70 | 158 | 1.0 | 3.0 | 0.00 | 0.29 | 0.24 | 99 | 1016.8 |
| 20260903123916 | 70 | 174 | 1.0 | 2.0 | 0.00 | 0.30 | 0.24 | 99 | 1017.0 |
| 20260903123828 | 70 | 184 | 1.0 | 1.0 | 0.00 | 0.30 | 0.24 | 99 | 1017.0 |
| 20260903123724 | 70 | 185 | 1.0 | 2.0 | 0.00 | 0.30 | 0.24 | 99 | 1017.1 |
| 20260903123619 | 70 | 187 | 1.0 | 1.0 | 0.00 | 0.30 | 0.24 | 99 | 1017.0 |
| 20260903123531 | 70 | 187 | 1.0 | 1.0 | 0.00 | 0.30 | 0.24 | 99 | 1016.8 |
| 20260903123426 | 70 | 189 | 1.0 | 2.0 | 0.00 | 0.30 | 0.24 | 99 | 1017.1 |
| 20260903123322 | 70 | 190 | 1.0 | 2.0 | 0.00 | 0.30 | 0.24 | 99 | 1017.1 |
| 20260903123218 | 70 | 198 | 1.0 | 2.0 | 0.00 | 0.30 | 0.24 | 99 | 1016.9 |
| 20260903123129 | 70 | 202 | 1.0 | 2.0 | 0.00 | 0.30 | 0.24 | 99 | 1017.0 |
| 20260903123025 | 70 | 203 | 0.0 | 1.0 | 0.00 | 0.30 | 0.24 | 99 | 1017.0 |
| 20260903122920 | 70 | 203 | 0.0 | 1.0 | 0.00 | 0.30 | 0.24 | 99 | 1016.9 |
| 20260903122816 | 70 | 216 | 1.0 | 2.0 | 0.00 | 0.30 | 0.24 | 99 | 1016.8 |
| 20260903122727 | 70 | 241 | 0.0 | 1.0 | 0.00 | 0.30 | 0.24 | 99 | 1016.8 |
| 20260903122623 | 70 | 241 | 1.0 | 1.0 | 0.00 | 0.30 | 0.24 | 99 | 1016.8 |
| 20260903122519 | 70 | 241 | 0.0 | 1.0 | 0.00 | 0.30 | 0.24 | 99 | 1016.8 |
| 20260903122430 | 70 | 241 | 0.0 | 2.0 | 0.00 | 0.30 | 0.24 | 99 | 1016.8 |
| 20260903122326 | 70 | 241 | 0.0 | 1.0 | 0.00 | 0.30 | 0.24 | 99 | 1016.7 |
| 20260903122222 | 69 | 0.0 | 0.0 | 0.00 | 0.30 | 0.24 | 99 | 1016.8 | |
| 20260903122117 | 70 | 0.0 | 0.0 | 0.00 | 0.30 | 0.24 | 99 | 1016.8 | |
| 20260903122029 | 70 | 0.0 | 0.0 | 0.00 | 0.30 | 0.24 | 99 | 1016.8 | |
| 20260903121924 | 70 | 241 | 1.0 | 1.0 | 0.00 | 0.30 | 0.24 | 99 | 1016.8 |
| 20260903121840 | 69 | 0.0 | 0.0 | 0.00 | 0.30 | 0.24 | 99 | 1016.8 | |
| 20260903121716 | 69 | 0.0 | 0.0 | 0.00 | 0.30 | 0.24 | 99 | 1016.9 | |
| 20260903121627 | 69 | 241 | 0.0 | 1.0 | 0.00 | 0.30 | 0.24 | 99 | 1016.8 |
| 20260903121522 | 69 | 241 | 0.0 | 1.0 | 0.00 | 0.30 | 0.24 | 99 | 1016.8 |
| 20260903121418 | 69 | 241 | 1.0 | 1.0 | 0.00 | 0.30 | 0.24 | 99 | 1016.8 |
| 20260903121330 | 69 | 241 | 0.0 | 1.0 | 0.00 | 0.30 | 0.24 | 99 | 1016.7 |
| 20260903121225 | 69 | 0.0 | 0.0 | 0.00 | 0.30 | 0.24 | 99 | 1016.7 | |
| 20260903121141 | 69 | 0.0 | 0.0 | 0.00 | 0.30 | 0.24 | 99 | 1016.5 | |
| 20260903121036 | 69 | 241 | 1.0 | 1.0 | 0.00 | 0.30 | 0.24 | 99 | 1016.5 |
| 20260903120928 | 69 | 241 | 1.0 | 1.0 | 0.00 | 0.30 | 0.24 | 99 | 1016.7 |
| 20260903120824 | 69 | 0.0 | 0.0 | 0.00 | 0.30 | 0.24 | 99 | 1016.8 | |
| 20260903120739 | 69 | 241 | 0.0 | 1.0 | 0.00 | 0.30 | 0.24 | 99 | 1016.7 |
| 20260903120631 | 69 | 0.0 | 0.0 | 0.00 | 0.30 | 0.24 | 99 | 1016.6 | |
| 20260903120526 | 69 | 242 | 0.0 | 1.0 | 0.00 | 0.30 | 0.24 | 99 | 1017.0 |
| 20260903120422 | 69 | 0.0 | 0.0 | 0.00 | 0.30 | 0.24 | 99 | 1017.0 | |
| 20260903120317 | 69 | 0.0 | 0.0 | 0.00 | 0.30 | 0.24 | 99 | 1016.8 | |
| 20260903120229 | 69 | 241 | 0.0 | 1.0 | 0.00 | 0.30 | 0.24 | 99 | 1016.9 |
| 20260903120124 | 69 | 242 | 1.0 | 1.0 | 0.00 | 0.30 | 0.24 | 99 | 1016.8 |
| 20260903120020 | 69 | 242 | 1.0 | 2.0 | 0.00 | 0.30 | 0.24 | 99 | 1016.7 |
| 20260903115915 | 69 | 0.0 | 0.0 | 0.00 | 0.30 | 0.24 | 99 | 1016.9 | |
| 20260903115827 | 69 | 242 | 0.0 | 1.0 | 0.00 | 0.30 | 0.24 | 99 | 1016.8 |
| 20260903115742 | 69 | 242 | 1.0 | 2.0 | 0.00 | 0.30 | 0.24 | 99 | 1016.6 |
| 20260903115618 | 69 | 246 | 0.0 | 1.0 | 0.00 | 0.30 | 0.24 | 99 | 1016.6 |
| 20260903115530 | 69 | 246 | 1.0 | 1.0 | 0.00 | 0.30 | 0.24 | 99 | 1016.9 |
| 20260903115446 | 69 | 246 | 1.0 | 1.0 | 0.00 | 0.30 | 0.24 | 99 | 1016.9 |
| 20260903115321 | 69 | 245 | 1.0 | 2.0 | 0.00 | 0.30 | 0.24 | 99 | 1017.0 |
| 20260903115257 | 69 | 247 | 1.0 | 1.0 | 0.00 | 0.30 | 0.24 | 99 | 1017.1 |
| 20260903115128 | 69 | 247 | 1.0 | 2.0 | 0.00 | 0.30 | 0.24 | 99 | 1016.9 |
| 20260903115024 | 69 | 247 | 1.0 | 1.0 | 0.00 | 0.30 | 0.24 | 99 | 1017.2 |
| 20260903114919 | 69 | 247 | 0.0 | 1.0 | 0.00 | 0.30 | 0.24 | 99 | 1017.2 |
| 20260903114831 | 69 | 247 | 0.0 | 1.0 | 0.00 | 0.30 | 0.24 | 99 | 1017.3 |
| 20260903114726 | 69 | 247 | 1.0 | 2.0 | 0.00 | 0.30 | 0.24 | 99 | 1017.3 |
| 20260903114622 | 69 | 248 | 1.0 | 2.0 | 0.00 | 0.30 | 0.24 | 99 | 1017.3 |
| 20260903114518 | 69 | 247 | 1.0 | 2.0 | 0.00 | 0.30 | 0.24 | 99 | 1017.3 |
| 20260903114429 | 69 | 248 | 1.0 | 1.0 | 0.00 | 0.30 | 0.24 | 99 | 1017.4 |
| 20260903114324 | 69 | 248 | 1.0 | 1.0 | 0.00 | 0.30 | 0.24 | 99 | 1017.5 |
| 20260903114220 | 69 | 248 | 1.0 | 1.0 | 0.00 | 0.30 | 0.24 | 99 | 1017.6 |
| 20260903114116 | 69 | 248 | 1.0 | 1.0 | 0.00 | 0.30 | 0.24 | 99 | 1017.4 |
| 20260903114028 | 69 | 247 | 1.0 | 2.0 | 0.00 | 0.30 | 0.24 | 99 | 1017.5 |
| 20260903113923 | 69 | 247 | 1.0 | 2.0 | 0.00 | 0.30 | 0.24 | 99 | 1017.5 |
| 20260903113819 | 69 | 247 | 2.0 | 3.0 | 0.00 | 0.30 | 0.24 | 99 | 1017.5 |
| 20260903113750 | 69 | 248 | 1.0 | 2.0 | 0.00 | 0.30 | 0.24 | 99 | 1017.3 |
| 20260903113625 | 69 | 0.0 | 0.0 | 0.00 | 0.30 | 0.24 | 99 | 1017.3 | |
| 20260903113521 | 69 | 0.0 | 0.0 | 0.00 | 0.30 | 0.24 | 99 | 1017.3 | |
| 20260903113417 | 69 | 0.0 | 0.0 | 0.00 | 0.30 | 0.24 | 99 | 1017.3 | |
| 20260903113328 | 69 | 0.0 | 0.0 | 0.00 | 0.30 | 0.24 | 99 | 1017.0 | |
| 20260903113223 | 69 | 0.0 | 0.0 | 0.00 | 0.30 | 0.24 | 99 | 1017.2 | |
| 20260903113119 | 69 | 0.0 | 0.0 | 0.00 | 0.30 | 0.24 | 99 | 1017.2 | |
| 20260903113051 | 69 | 0.0 | 0.0 | 0.00 | 0.30 | 0.24 | 99 | 1017.3 | |
| 20260903112946 | 69 | 0.0 | 0.0 | 0.00 | 0.30 | 0.24 | 99 | 1017.3 | |
| 20260903112822 | 69 | 0.0 | 0.0 | 0.00 | 0.30 | 0.24 | 99 | 1017.3 | |
| 20260903112718 | 68 | 0.0 | 0.0 | 0.00 | 0.30 | 0.24 | 99 | 1017.2 | |
| 20260903112629 | 68 | 240 | 0.0 | 1.0 | 0.00 | 0.30 | 0.24 | 99 | 1017.3 |
| 20260903112525 | 68 | 240 | 0.0 | 1.0 | 0.00 | 0.30 | 0.24 | 99 | 1017.3 |
| 20260903112420 | 68 | 0.0 | 0.0 | 0.00 | 0.30 | 0.24 | 99 | 1017.1 | |
| 20260903112316 | 68 | 240 | 0.0 | 1.0 | 0.00 | 0.30 | 0.24 | 99 | 1017.2 |
| 20260903112227 | 68 | 240 | 1.0 | 1.0 | 0.00 | 0.30 | 0.24 | 99 | 1017.1 |
| 20260903112122 | 68 | 240 | 0.0 | 1.0 | 0.00 | 0.30 | 0.24 | 99 | 1017.0 |
| 20260903112018 | 68 | 240 | 0.0 | 1.0 | 0.00 | 0.30 | 0.24 | 99 | 1017.0 |
| 20260903111930 | 68 | 0.0 | 0.0 | 0.00 | 0.30 | 0.24 | 99 | 1017.2 | |
| 20260903111825 | 68 | 0.0 | 0.0 | 0.00 | 0.30 | 0.24 | 99 | 1017.2 | |
| 20260903111721 | 68 | 0.0 | 0.0 | 0.00 | 0.30 | 0.24 | 99 | 1016.9 | |
| 20260903111616 | 68 | 240 | 0.0 | 1.0 | 0.00 | 0.30 | 0.24 | 99 | 1016.9 |
| 20260903111528 | 68 | 0.0 | 0.0 | 0.00 | 0.30 | 0.24 | 99 | 1016.9 | |
| 20260903111444 | 68 | 0.0 | 0.0 | 0.00 | 0.30 | 0.24 | 99 | 1017.0 | |
| 20260903111319 | 68 | 0.0 | 0.0 | 0.00 | 0.30 | 0.24 | 99 | 1017.1 | |
| 20260903111231 | 68 | 239 | 0.0 | 1.0 | 0.00 | 0.30 | 0.24 | 99 | 1016.9 |
| 20260903111126 | 68 | 0.0 | 0.0 | 0.00 | 0.30 | 0.24 | 99 | 1017.1 | |
| 20260903111022 | 68 | 0.0 | 0.0 | 0.00 | 0.30 | 0.24 | 99 | 1017.0 | |
| 20260903110917 | 68 | 239 | 0.0 | 1.0 | 0.00 | 0.30 | 0.24 | 99 | 1016.9 |
| 20260903110828 | 68 | 239 | 0.0 | 1.0 | 0.00 | 0.30 | 0.24 | 99 | 1017.0 |
| 20260903110744 | 68 | 240 | 1.0 | 2.0 | 0.00 | 0.30 | 0.24 | 99 | 1017.1 |
| 20260903110619 | 68 | 0.0 | 0.0 | 0.00 | 0.30 | 0.24 | 99 | 1017.1 | |
| 20260903110530 | 68 | 0.0 | 0.0 | 0.00 | 0.30 | 0.24 | 99 | 1017.2 | |
| 20260903110446 | 68 | 0.0 | 0.0 | 0.00 | 0.30 | 0.24 | 99 | 1017.1 | |
| 20260903110322 | 68 | 0.0 | 0.0 | 0.00 | 0.30 | 0.24 | 99 | 1017.1 | |
| 20260903110218 | 68 | 242 | 0.0 | 1.0 | 0.00 | 0.30 | 0.24 | 99 | 1017.1 |
| 20260903110129 | 68 | 242 | 1.0 | 2.0 | 0.00 | 0.30 | 0.24 | 99 | 1017.2 |
| 20260903110024 | 68 | 243 | 2.0 | 2.0 | 0.00 | 0.30 | 0.24 | 99 | 1017.4 |
| 20260903105920 | 68 | 243 | 2.0 | 2.0 | 0.00 | 0.30 | 0.24 | 99 | 1017.3 |
| 20260903105816 | 68 | 244 | 0.0 | 2.0 | 0.00 | 0.30 | 0.24 | 99 | 1017.2 |
| 20260903105727 | 68 | 245 | 1.0 | 2.0 | 0.00 | 0.30 | 0.24 | 99 | 1017.4 |
| 20260903105623 | 68 | 237 | 1.0 | 2.0 | 0.00 | 0.30 | 0.24 | 99 | 1017.4 |
| 20260903105518 | 68 | 234 | 1.0 | 2.0 | 0.00 | 0.30 | 0.24 | 99 | 1017.4 |
| 20260903105430 | 68 | 230 | 0.0 | 1.0 | 0.00 | 0.30 | 0.24 | 99 | 1017.3 |
| 20260903105325 | 68 | 230 | 1.0 | 1.0 | 0.00 | 0.30 | 0.24 | 99 | 1017.4 |
| 20260903105221 | 68 | 230 | 1.0 | 1.0 | 0.00 | 0.30 | 0.24 | 99 | 1017.4 |
| 20260903105116 | 68 | 230 | 0.0 | 1.0 | 0.00 | 0.30 | 0.24 | 99 | 1017.5 |
| 20260903105028 | 68 | 230 | 1.0 | 2.0 | 0.00 | 0.30 | 0.24 | 99 | 1017.6 |
| 20260903104924 | 68 | 221 | 1.0 | 2.0 | 0.00 | 0.30 | 0.24 | 99 | 1017.5 |
| 20260903104819 | 68 | 203 | 1.0 | 1.0 | 0.00 | 0.30 | 0.24 | 99 | 1017.4 |
| 20260903104731 | 68 | 203 | 0.0 | 2.0 | 0.00 | 0.30 | 0.24 | 99 | 1017.5 |
| 20260903104626 | 68 | 203 | 0.0 | 1.0 | 0.00 | 0.30 | 0.24 | 99 | 1017.3 |
| 20260903104522 | 68 | 203 | 0.0 | 1.0 | 0.00 | 0.30 | 0.24 | 99 | 1017.4 |
| 20260903104417 | 68 | 203 | 1.0 | 2.0 | 0.00 | 0.30 | 0.24 | 99 | 1017.4 |
| 20260903104329 | 68 | 204 | 1.0 | 2.0 | 0.00 | 0.30 | 0.24 | 99 | 1017.4 |
| 20260903104245 | 68 | 203 | 0.0 | 1.0 | 0.00 | 0.30 | 0.24 | 99 | 1017.4 |
| 20260903104120 | 68 | 203 | 1.0 | 2.0 | 0.00 | 0.30 | 0.24 | 99 | 1017.4 |
| 20260903104016 | 68 | 203 | 1.0 | 2.0 | 0.00 | 0.30 | 0.24 | 99 | 1017.4 |
| 20260903103927 | 68 | 202 | 2.0 | 2.0 | 0.00 | 0.30 | 0.24 | 99 | 1017.3 |
| 20260903103823 | 68 | 200 | 1.0 | 2.0 | 0.00 | 0.30 | 0.24 | 99 | 1017.3 |
| 20260903103718 | 68 | 200 | 1.0 | 1.0 | 0.00 | 0.30 | 0.24 | 99 | 1017.3 |
| 20260903103630 | 68 | 0.0 | 0.0 | 0.00 | 0.30 | 0.24 | 99 | 1017.0 | |
| 20260903103526 | 68 | 0.0 | 0.0 | 0.00 | 0.30 | 0.24 | 99 | 1017.2 | |
| 20260903103441 | 68 | 0.0 | 0.0 | 0.00 | 0.30 | 0.24 | 99 | 1017.2 | |
| 20260903103317 | 68 | 0.0 | 0.0 | 0.00 | 0.30 | 0.24 | 99 | 1017.2 | |
| 20260903103228 | 68 | 0.0 | 0.0 | 0.00 | 0.30 | 0.24 | 99 | 1017.4 | |
| 20260903103144 | 68 | 201 | 0.0 | 1.0 | 0.00 | 0.30 | 0.24 | 99 | 1017.2 |
| 20260903103019 | 68 | 0.0 | 0.0 | 0.00 | 0.30 | 0.24 | 99 | 1017.2 | |
| 20260903102931 | 68 | 200 | 0.0 | 1.0 | 0.00 | 0.30 | 0.24 | 99 | 1017.2 |
| 20260903102826 | 68 | 200 | 1.0 | 1.0 | 0.00 | 0.30 | 0.24 | 99 | 1017.2 |
| 20260903102722 | 68 | 201 | 1.0 | 1.0 | 0.00 | 0.30 | 0.24 | 99 | 1017.3 |
| 20260903102618 | 68 | 200 | 0.0 | 1.0 | 0.00 | 0.30 | 0.24 | 99 | 1017.3 |
| 20260903102549 | 68 | 200 | 0.0 | 1.0 | 0.00 | 0.30 | 0.24 | 99 | 1017.3 |
| 20260903102444 | 68 | 0.0 | 0.0 | 0.00 | 0.30 | 0.24 | 99 | 1017.3 | |
| 20260903102320 | 68 | 0.0 | 0.0 | 0.00 | 0.30 | 0.24 | 99 | 1017.1 | |
| 20260903102216 | 68 | 200 | 0.0 | 1.0 | 0.00 | 0.30 | 0.24 | 99 | 1017.2 |
| 20260903102127 | 68 | 0.0 | 0.0 | 0.00 | 0.30 | 0.24 | 99 | 1017.3 | |
| 20260903102110 | 68 | 0.0 | 0.0 | 0.00 | 0.30 | 0.24 | 99 | 1017.1 | |
| 20260903102050 | 68 | 0.0 | 0.0 | 0.00 | 0.30 | 0.24 | 99 | 1016.9 | |
| 20260903101805 | 68 | 0.0 | 0.0 | 0.00 | 0.30 | 0.24 | 99 | 1017.1 | |
| 20260903101621 | 68 | 0.0 | 0.0 | 0.00 | 0.30 | 0.24 | 99 | 1017.1 | |
| 20260903101517 | 68 | 200 | 0.0 | 1.0 | 0.00 | 0.30 | 0.24 | 99 | 1017.1 |
| 20260903101428 | 68 | 198 | 1.0 | 2.0 | 0.00 | 0.30 | 0.24 | 99 | 1017.2 |
| 20260903101324 | 68 | 176 | 1.0 | 1.0 | 0.00 | 0.30 | 0.24 | 99 | 1017.3 |
| 20260903101219 | 68 | 176 | 1.0 | 2.0 | 0.00 | 0.30 | 0.24 | 99 | 1017.2 |
| 20260903101131 | 68 | 156 | 0.0 | 2.0 | 0.00 | 0.30 | 0.24 | 99 | 1017.1 |
| 20260903101026 | 68 | 0.0 | 0.0 | 0.00 | 0.30 | 0.24 | 99 | 1017.1 | |
| 20260903100921 | 68 | 154 | 0.0 | 1.0 | 0.00 | 0.30 | 0.24 | 99 | 1016.9 |
| 20260903100817 | 68 | 0.0 | 0.0 | 0.00 | 0.30 | 0.24 | 99 | 1017.2 | |
| 20260903100729 | 68 | 0.0 | 0.0 | 0.00 | 0.30 | 0.24 | 99 | 1017.0 | |
| 20260903100624 | 68 | 153 | 0.0 | 1.0 | 0.00 | 0.30 | 0.24 | 99 | 1017.0 |
| 20260903100520 | 68 | 154 | 1.0 | 1.0 | 0.00 | 0.30 | 0.24 | 99 | 1017.0 |
| 20260903100416 | 68 | 154 | 1.0 | 2.0 | 0.01 | 0.30 | 0.24 | 99 | 1016.8 |
| 20260903100327 | 68 | 154 | 0.0 | 1.0 | 0.01 | 0.30 | 0.24 | 99 | 1017.0 |
| 20260903100222 | 68 | 165 | 1.0 | 3.0 | 0.01 | 0.30 | 0.24 | 99 | 1017.1 |
| 20260903100118 | 68 | 263 | 0.0 | 1.0 | 0.01 | 0.30 | 0.24 | 99 | 1017.1 |
| 20260903100029 | 68 | 263 | 0.0 | 1.0 | 0.01 | 0.30 | 0.24 | 99 | 1017.2 |
| 20260903095925 | 68 | 263 | 0.0 | 1.0 | 0.01 | 0.30 | 0.24 | 99 | 1017.2 |
| 20260903095821 | 68 | 263 | 0.0 | 1.0 | 0.01 | 0.30 | 0.24 | 99 | 1017.2 |
| 20260903095716 | 68 | 266 | 1.0 | 2.0 | 0.01 | 0.30 | 0.24 | 99 | 1017.1 |
| 20260903095648 | 68 | 0.0 | 0.0 | 0.01 | 0.30 | 0.24 | 99 | 1017.1 | |
| 20260903095523 | 68 | 269 | 0.0 | 1.0 | 0.01 | 0.30 | 0.24 | 99 | 1017.2 |
| 20260903095419 | 68 | 269 | 0.0 | 1.0 | 0.01 | 0.30 | 0.24 | 99 | 1017.2 |
| 20260903095331 | 68 | 269 | 1.0 | 2.0 | 0.01 | 0.30 | 0.24 | 99 | 1017.3 |
| 20260903095246 | 68 | 0.0 | 0.0 | 0.01 | 0.30 | 0.24 | 99 | 1017.2 | |
| 20260903095122 | 68 | 269 | 0.0 | 1.0 | 0.01 | 0.30 | 0.24 | 99 | 1017.2 |
| 20260903095017 | 68 | 269 | 1.0 | 1.0 | 0.01 | 0.30 | 0.24 | 99 | 1017.2 |
| 20260903094929 | 68 | 269 | 0.0 | 1.0 | 0.01 | 0.30 | 0.24 | 99 | 1017.4 |
| 20260903094845 | 68 | 269 | 0.0 | 1.0 | 0.01 | 0.30 | 0.24 | 99 | 1017.3 |
| 20260903094740 | 68 | 269 | 1.0 | 1.0 | 0.01 | 0.30 | 0.24 | 99 | 1017.3 |
| 20260903094616 | 68 | 269 | 1.0 | 1.0 | 0.01 | 0.30 | 0.24 | 99 | 1017.1 |
| 20260903094527 | 68 | 264 | 1.0 | 2.0 | 0.01 | 0.30 | 0.24 | 99 | 1017.3 |
| 20260903094443 | 68 | 246 | 1.0 | 2.0 | 0.01 | 0.30 | 0.24 | 99 | 1017.4 |
| 20260903094319 | 68 | 249 | 1.0 | 3.0 | 0.01 | 0.30 | 0.24 | 99 | 1017.4 |
| 20260903094230 | 68 | 245 | 1.0 | 2.0 | 0.02 | 0.30 | 0.24 | 99 | 1017.2 |
| 20260903094126 | 68 | 248 | 2.0 | 3.0 | 0.02 | 0.30 | 0.24 | 99 | 1017.2 |
| 20260903094021 | 68 | 261 | 0.0 | 1.0 | 0.02 | 0.30 | 0.24 | 99 | 1017.2 |
| 20260903093917 | 68 | 261 | 1.0 | 1.0 | 0.02 | 0.30 | 0.24 | 99 | 1017.1 |
| 20260903093829 | 68 | 261 | 1.0 | 2.0 | 0.02 | 0.30 | 0.24 | 99 | 1017.2 |
| 20260903093724 | 68 | 254 | 2.0 | 3.0 | 0.02 | 0.30 | 0.24 | 99 | 1017.0 |
| 20260903093620 | 68 | 231 | 1.0 | 1.0 | 0.02 | 0.30 | 0.24 | 99 | 1016.9 |
| 20260903093536 | 68 | 230 | 1.0 | 3.0 | 0.02 | 0.30 | 0.24 | 99 | 1017.1 |
| 20260903093427 | 68 | 243 | 2.0 | 4.0 | 0.02 | 0.30 | 0.24 | 99 | 1016.9 |
| 20260903093343 | 68 | 227 | 0.0 | 1.0 | 0.02 | 0.30 | 0.24 | 99 | 1016.9 |
| 20260903093218 | 68 | 227 | 0.0 | 1.0 | 0.02 | 0.30 | 0.24 | 99 | 1016.6 |
| 20260903093130 | 68 | 227 | 0.0 | 1.0 | 0.02 | 0.30 | 0.24 | 99 | 1016.9 |
| 20260903093025 | 68 | 227 | 1.0 | 2.0 | 0.02 | 0.30 | 0.24 | 99 | 1016.9 |
| 20260903092921 | 68 | 226 | 1.0 | 2.0 | 0.02 | 0.30 | 0.24 | 99 | 1016.9 |
| 20260903092817 | 68 | 225 | 1.0 | 1.0 | 0.02 | 0.30 | 0.24 | 99 | 1016.8 |
| 20260903092728 | 68 | 224 | 1.0 | 2.0 | 0.02 | 0.30 | 0.24 | 99 | 1016.7 |
| 20260903092624 | 68 | 215 | 1.0 | 2.0 | 0.02 | 0.30 | 0.24 | 99 | 1016.7 |
| 20260903092519 | 68 | 208 | 1.0 | 1.0 | 0.02 | 0.30 | 0.24 | 99 | 1016.6 |
| 20260903092415 | 68 | 207 | 1.0 | 2.0 | 0.02 | 0.30 | 0.24 | 99 | 1016.6 |
| 20260903092327 | 68 | 206 | 1.0 | 1.0 | 0.02 | 0.30 | 0.24 | 99 | 1016.6 |
| 20260903092222 | 68 | 207 | 0.0 | 1.0 | 0.02 | 0.30 | 0.24 | 99 | 1016.6 |
| 20260903092117 | 68 | 167 | 1.0 | 3.0 | 0.02 | 0.30 | 0.24 | 99 | 1016.3 |
| 20260903092029 | 68 | 168 | 1.0 | 3.0 | 0.03 | 0.30 | 0.24 | 99 | 1016.5 |
| 20260903091944 | 68 | 0.0 | 0.0 | 0.03 | 0.30 | 0.24 | 99 | 1016.6 | |
| 20260903091820 | 68 | 226 | 2.0 | 3.0 | 0.03 | 0.30 | 0.24 | 99 | 1016.6 |
| 20260903091716 | 68 | 205 | 2.0 | 3.0 | 0.03 | 0.30 | 0.24 | 99 | 1016.4 |
| 20260903091627 | 68 | 175 | 1.0 | 1.0 | 0.03 | 0.30 | 0.24 | 99 | 1016.3 |
| 20260903091523 | 68 | 172 | 1.0 | 2.0 | 0.03 | 0.30 | 0.24 | 99 | 1016.4 |
| 20260903091419 | 68 | 148 | 2.0 | 3.0 | 0.03 | 0.30 | 0.24 | 99 | 1016.5 |
| 20260903091330 | 68 | 221 | 1.0 | 1.0 | 0.03 | 0.30 | 0.24 | 99 | 1016.5 |
| 20260903091226 | 68 | 221 | 0.0 | 1.0 | 0.03 | 0.30 | 0.24 | 99 | 1016.7 |
| 20260903091141 | 68 | 206 | 2.0 | 2.0 | 0.03 | 0.30 | 0.24 | 99 | 1016.6 |
| 20260903091017 | 69 | 170 | 1.0 | 2.0 | 0.03 | 0.30 | 0.24 | 99 | 1016.5 |
| 20260903090928 | 68 | 170 | 1.0 | 1.0 | 0.03 | 0.30 | 0.24 | 99 | 1016.4 |
| 20260903090824 | 68 | 170 | 1.0 | 1.0 | 0.02 | 0.30 | 0.24 | 99 | 1016.4 |
| 20260903090720 | 68 | 170 | 0.0 | 1.0 | 0.02 | 0.30 | 0.24 | 99 | 1016.4 |
| 20260903090616 | 68 | 170 | 0.0 | 1.0 | 0.02 | 0.30 | 0.24 | 99 | 1016.4 |
| 20260903090527 | 68 | 170 | 0.0 | 1.0 | 0.02 | 0.30 | 0.24 | 99 | 1016.6 |
| 20260903090423 | 69 | 167 | 1.0 | 2.0 | 0.02 | 0.29 | 0.23 | 99 | 1016.4 |
| 20260903090419 | 69 | 163 | 1.0 | 3.0 | 0.02 | 0.29 | 0.23 | 99 | 1016.5 |
| 20260903090230 | 69 | 236 | 1.0 | 3.0 | 0.02 | 0.29 | 0.23 | 99 | 1016.4 |
| 20260903090125 | 69 | 234 | 3.0 | 6.0 | 0.02 | 0.29 | 0.23 | 99 | 1016.7 |
| 20260903090021 | 69 | 208 | 0.0 | 1.0 | 0.02 | 0.29 | 0.23 | 99 | 1016.5 |
| 20260903085916 | 68 | 209 | 0.0 | 1.0 | 0.02 | 0.29 | 0.23 | 99 | 1016.6 |
| 20260903085828 | 68 | 210 | 1.0 | 2.0 | 0.02 | 0.29 | 0.23 | 99 | 1016.6 |
| 20260903085744 | 68 | 225 | 3.0 | 4.0 | 0.02 | 0.29 | 0.23 | 99 | 1016.7 |
| 20260903085619 | 69 | 245 | 4.0 | 6.0 | 0.02 | 0.29 | 0.23 | 99 | 1016.4 |
| 20260903085530 | 68 | 200 | 2.0 | 3.0 | 0.02 | 0.29 | 0.23 | 99 | 1016.6 |
| 20260903085426 | 68 | 251 | 4.0 | 9.0 | 0.02 | 0.29 | 0.23 | 99 | 1016.5 |
| 20260903085321 | 68 | 238 | 3.0 | 4.0 | 0.02 | 0.29 | 0.23 | 99 | 1016.6 |
| 20260903085216 | 69 | 166 | 1.0 | 1.0 | 0.02 | 0.29 | 0.23 | 99 | 1016.3 |
| 20260903085148 | 68 | 168 | 2.0 | 8.0 | 0.02 | 0.29 | 0.23 | 99 | 1016.3 |
| 20260903085104 | 69 | 167 | 2.0 | 8.0 | 0.02 | 0.29 | 0.23 | 99 | 1016.1 |
| 20260903084919 | 69 | 179 | 1.0 | 2.0 | 0.02 | 0.29 | 0.23 | 99 | 1015.9 |
| 20260903084831 | 68 | 181 | 2.0 | 4.0 | 0.02 | 0.29 | 0.23 | 99 | 1016.1 |
| 20260903084726 | 68 | 162 | 2.0 | 3.0 | 0.02 | 0.29 | 0.23 | 99 | 1016.2 |
| 20260903084622 | 69 | 154 | 3.0 | 6.0 | 0.02 | 0.29 | 0.23 | 99 | 1016.2 |
| 20260903084517 | 69 | 148 | 2.0 | 3.0 | 0.02 | 0.29 | 0.23 | 99 | 1016.2 |
| 20260903084429 | 69 | 159 | 2.0 | 3.0 | 0.02 | 0.29 | 0.23 | 99 | 1016.5 |
| 20260903084345 | 69 | 174 | 3.0 | 4.0 | 0.02 | 0.29 | 0.23 | 99 | 1016.6 |
| 20260903084220 | 69 | 171 | 3.0 | 4.0 | 0.01 | 0.28 | 0.22 | 99 | 1016.7 |
| 20260903084115 | 69 | 161 | 2.0 | 3.0 | 0.01 | 0.28 | 0.22 | 99 | 1016.6 |
| 20260903084027 | 69 | 175 | 2.0 | 3.0 | 0.01 | 0.28 | 0.22 | 99 | 1017.0 |
| 20260903083923 | 69 | 193 | 2.0 | 4.0 | 0.01 | 0.28 | 0.22 | 99 | 1016.9 |
| 20260903083838 | 69 | 167 | 3.0 | 6.0 | 0.01 | 0.28 | 0.22 | 99 | 1017.1 |
| 20260903083750 | 69 | 170 | 1.0 | 4.0 | 0.02 | 0.28 | 0.22 | 99 | 1017.0 |
| 20260903083645 | 69 | 165 | 2.0 | 3.0 | 0.02 | 0.28 | 0.22 | 99 | 1017.0 |
| 20260903083521 | 69 | 161 | 1.0 | 2.0 | 0.02 | 0.28 | 0.22 | 99 | 1016.7 |
| 20260903083416 | 69 | 159 | 1.0 | 2.0 | 0.02 | 0.28 | 0.22 | 99 | 1016.9 |
| 20260903083328 | 69 | 155 | 1.0 | 3.0 | 0.01 | 0.28 | 0.22 | 99 | 1017.2 |
| 20260903083224 | 69 | 157 | 2.0 | 3.0 | 0.01 | 0.28 | 0.22 | 99 | 1017.2 |
| 20260903083119 | 69 | 157 | 1.0 | 1.0 | 0.01 | 0.28 | 0.22 | 99 | 1017.2 |
| 20260903083051 | 69 | 153 | 1.0 | 2.0 | 0.01 | 0.28 | 0.22 | 99 | 1017.1 |
| 20260903082926 | 69 | 151 | 1.0 | 2.0 | 0.01 | 0.28 | 0.22 | 99 | 1017.2 |
| 20260903082822 | 69 | 150 | 1.0 | 2.0 | 0.01 | 0.28 | 0.22 | 99 | 1016.9 |
| 20260903082717 | 69 | 143 | 1.0 | 2.0 | 0.01 | 0.28 | 0.22 | 99 | 1016.8 |
| 20260903082628 | 69 | 142 | 3.0 | 3.0 | 0.01 | 0.28 | 0.22 | 99 | 1016.9 |
| 20260903082524 | 69 | 137 | 3.0 | 4.0 | 0.01 | 0.28 | 0.22 | 99 | 1017.0 |
| 20260903082419 | 69 | 138 | 5.0 | 7.0 | 0.01 | 0.28 | 0.22 | 99 | 1017.1 |
| 20260903082331 | 69 | 135 | 3.0 | 4.0 | 0.01 | 0.28 | 0.22 | 99 | 1017.4 |
| 20260903082247 | 69 | 181 | 2.0 | 3.0 | 0.01 | 0.28 | 0.22 | 99 | 1017.7 |
| 20260903082122 | 69 | 186 | 1.0 | 2.0 | 0.01 | 0.28 | 0.22 | 99 | 1017.8 |
| 20260903082018 | 69 | 187 | 1.0 | 2.0 | 0.01 | 0.27 | 0.21 | 99 | 1018.1 |
| 20260903081929 | 69 | 189 | 1.0 | 2.0 | 0.01 | 0.27 | 0.21 | 99 | 1017.9 |
| 20260903081825 | 68 | 196 | 1.0 | 2.0 | 0.01 | 0.27 | 0.21 | 99 | 1018.2 |
| 20260903081721 | 69 | 196 | 0.0 | 1.0 | 0.01 | 0.27 | 0.21 | 99 | 1018.3 |
| 20260903081616 | 68 | 196 | 0.0 | 1.0 | 0.01 | 0.27 | 0.21 | 99 | 1018.3 |
| 20260903081528 | 68 | 196 | 1.0 | 1.0 | 0.01 | 0.27 | 0.21 | 99 | 1018.4 |
| 20260903081443 | 68 | 196 | 1.0 | 2.0 | 0.01 | 0.27 | 0.21 | 99 | 1018.5 |
| 20260903081339 | 68 | 201 | 1.0 | 2.0 | 0.01 | 0.27 | 0.21 | 99 | 1018.7 |
| 20260903081231 | 68 | 212 | 1.0 | 1.0 | 0.01 | 0.27 | 0.21 | 99 | 1018.4 |
| 20260903081126 | 68 | 212 | 1.0 | 2.0 | 0.01 | 0.27 | 0.21 | 99 | 1018.5 |
| 20260903081022 | 68 | 212 | 1.0 | 2.0 | 0.01 | 0.27 | 0.21 | 99 | 1018.4 |
| 20260903080917 | 68 | 213 | 1.0 | 1.0 | 0.02 | 0.27 | 0.21 | 99 | 1018.4 |
| 20260903080829 | 68 | 213 | 1.0 | 1.0 | 0.02 | 0.27 | 0.21 | 99 | 1018.6 |
| 20260903080725 | 68 | 213 | 0.0 | 1.0 | 0.02 | 0.27 | 0.21 | 99 | 1018.4 |
| 20260903080620 | 68 | 214 | 1.0 | 1.0 | 0.02 | 0.27 | 0.21 | 99 | 1018.4 |
| 20260903080515 | 68 | 223 | 1.0 | 6.0 | 0.02 | 0.27 | 0.21 | 99 | 1018.6 |
| 20260903080427 | 68 | 231 | 1.0 | 6.0 | 0.03 | 0.27 | 0.21 | 99 | 1018.6 |
| 20260903080322 | 68 | 232 | 1.0 | 3.0 | 0.03 | 0.27 | 0.21 | 99 | 1018.6 |
| 20260903080238 | 68 | 232 | 3.0 | 3.0 | 0.03 | 0.27 | 0.21 | 99 | 1018.4 |
| 20260903080210 | 68 | 240 | 3.0 | 4.0 | 0.04 | 0.27 | 0.21 | 99 | 1018.6 |
| 20260903080025 | 68 | 248 | 1.0 | 2.0 | 0.04 | 0.27 | 0.21 | 99 | 1018.6 |
| 20260903075921 | 68 | 248 | 2.0 | 3.0 | 0.04 | 0.27 | 0.21 | 99 | 1018.6 |
| 20260903075816 | 68 | 262 | 4.0 | 6.0 | 0.04 | 0.27 | 0.21 | 99 | 1018.5 |
| 20260903075728 | 68 | 243 | 3.0 | 6.0 | 0.05 | 0.27 | 0.21 | 99 | 1018.4 |
| 20260903075623 | 68 | 248 | 2.0 | 3.0 | 0.05 | 0.27 | 0.21 | 99 | 1018.4 |
| 20260903075519 | 68 | 249 | 3.0 | 4.0 | 0.05 | 0.27 | 0.21 | 99 | 1018.3 |
| 20260903075431 | 68 | 270 | 4.0 | 7.0 | 0.05 | 0.27 | 0.21 | 99 | 1018.3 |
| 20260903075326 | 68 | 259 | 3.0 | 4.0 | 0.06 | 0.27 | 0.21 | 99 | 1018.3 |
| 20260903075222 | 68 | 267 | 1.0 | 2.0 | 0.06 | 0.27 | 0.21 | 99 | 1018.2 |
| 20260903075117 | 68 | 270 | 2.0 | 3.0 | 0.06 | 0.27 | 0.21 | 99 | 1018.0 |
| 20260903075029 | 68 | 264 | 2.0 | 3.0 | 0.06 | 0.27 | 0.21 | 99 | 1018.1 |
| 20260903074945 | 68 | 245 | 1.0 | 2.0 | 0.06 | 0.27 | 0.21 | 99 | 1018.1 |
| 20260903074820 | 68 | 245 | 1.0 | 1.0 | 0.07 | 0.27 | 0.21 | 99 | 1017.9 |
| 20260903074731 | 68 | 262 | 2.0 | 3.0 | 0.07 | 0.27 | 0.21 | 99 | 1018.1 |
| 20260903074626 | 68 | 295 | 2.0 | 4.0 | 0.07 | 0.27 | 0.21 | 99 | 1017.9 |
| 20260903074522 | 68 | 289 | 2.0 | 3.0 | 0.07 | 0.27 | 0.21 | 99 | 1017.9 |
| 20260903074417 | 68 | 306 | 2.0 | 3.0 | 0.07 | 0.27 | 0.21 | 99 | 1017.9 |
| 20260903074329 | 68 | 292 | 2.0 | 3.0 | 0.07 | 0.27 | 0.21 | 99 | 1017.9 |
| 20260903074225 | 68 | 258 | 2.0 | 3.0 | 0.07 | 0.27 | 0.21 | 99 | 1017.8 |
| 20260903074120 | 68 | 253 | 3.0 | 3.0 | 0.07 | 0.27 | 0.21 | 99 | 1017.5 |
| 20260903074016 | 68 | 236 | 2.0 | 3.0 | 0.07 | 0.27 | 0.21 | 99 | 1017.4 |
| 20260903073927 | 68 | 148 | 1.0 | 1.0 | 0.07 | 0.27 | 0.21 | 99 | 1017.2 |
| 20260903073842 | 68 | 147 | 1.0 | 1.0 | 0.07 | 0.27 | 0.21 | 99 | 1017.2 |
| 20260903073718 | 68 | 0.0 | 0.0 | 0.07 | 0.27 | 0.21 | 99 | 1017.0 | |
| 20260903073630 | 68 | 146 | 1.0 | 1.0 | 0.07 | 0.27 | 0.21 | 99 | 1017.0 |
| 20260903073525 | 68 | 149 | 1.0 | 2.0 | 0.07 | 0.27 | 0.21 | 99 | 1017.0 |
| 20260903073421 | 68 | 150 | 1.0 | 1.0 | 0.07 | 0.27 | 0.21 | 99 | 1017.0 |
| 20260903073316 | 68 | 150 | 1.0 | 1.0 | 0.08 | 0.27 | 0.21 | 99 | 1017.0 |
| 20260903073228 | 68 | 150 | 1.0 | 1.0 | 0.08 | 0.27 | 0.21 | 99 | 1016.9 |
| 20260903073123 | 68 | 151 | 1.0 | 2.0 | 0.08 | 0.27 | 0.21 | 99 | 1016.8 |
| 20260903073019 | 68 | 151 | 1.0 | 2.0 | 0.08 | 0.27 | 0.21 | 99 | 1016.7 |
| 20260903072931 | 68 | 150 | 1.0 | 2.0 | 0.08 | 0.27 | 0.21 | 99 | 1017.0 |
| 20260903072826 | 68 | 151 | 1.0 | 1.0 | 0.08 | 0.27 | 0.21 | 99 | 1017.0 |
| 20260903072722 | 68 | 151 | 1.0 | 3.0 | 0.08 | 0.27 | 0.21 | 99 | 1017.1 |
| 20260903072617 | 68 | 151 | 1.0 | 2.0 | 0.08 | 0.27 | 0.21 | 99 | 1017.0 |
| 20260903072529 | 68 | 151 | 2.0 | 2.0 | 0.09 | 0.27 | 0.21 | 99 | 1017.1 |
| 20260903072424 | 68 | 152 | 1.0 | 2.0 | 0.09 | 0.27 | 0.21 | 99 | 1017.3 |
| 20260903072320 | 68 | 152 | 2.0 | 2.0 | 0.09 | 0.27 | 0.21 | 99 | 1017.0 |
| 20260903072216 | 68 | 154 | 2.0 | 2.0 | 0.09 | 0.27 | 0.21 | 99 | 1017.1 |
| 20260903072207 | 68 | 156 | 1.0 | 2.0 | 0.09 | 0.26 | 0.20 | 99 | 1017.4 |
| 20260903072022 | 68 | 157 | 2.0 | 2.0 | 0.09 | 0.26 | 0.20 | 99 | 1017.6 |
| 20260903071918 | 68 | 158 | 1.0 | 2.0 | 0.09 | 0.26 | 0.20 | 99 | 1017.6 |
| 20260903071830 | 68 | 182 | 2.0 | 3.0 | 0.09 | 0.26 | 0.20 | 99 | 1017.7 |
| 20260903071725 | 68 | 200 | 1.0 | 2.0 | 0.09 | 0.26 | 0.20 | 98 | 1017.8 |
| 20260903071621 | 68 | 201 | 2.0 | 2.0 | 0.09 | 0.26 | 0.20 | 98 | 1017.8 |
| 20260903071516 | 68 | 235 | 1.0 | 2.0 | 0.09 | 0.26 | 0.20 | 98 | 1017.8 |
| 20260903071448 | 68 | 246 | 0.0 | 1.0 | 0.09 | 0.26 | 0.20 | 98 | 1017.8 |
| 20260903071324 | 68 | 0.0 | 0.0 | 0.09 | 0.26 | 0.20 | 98 | 1017.8 | |
| 20260903071219 | 68 | 0.0 | 0.0 | 0.09 | 0.26 | 0.20 | 98 | 1017.9 | |
| 20260903071151 | 68 | 246 | 0.0 | 1.0 | 0.09 | 0.26 | 0.20 | 98 | 1017.7 |
| 20260903071026 | 68 | 246 | 0.0 | 1.0 | 0.09 | 0.26 | 0.20 | 98 | 1017.9 |
| 20260903070921 | 68 | 246 | 1.0 | 1.0 | 0.09 | 0.26 | 0.20 | 98 | 1017.9 |
| 20260903070817 | 68 | 247 | 1.0 | 2.0 | 0.09 | 0.26 | 0.20 | 98 | 1017.8 |
| 20260903070728 | 68 | 247 | 1.0 | 1.0 | 0.08 | 0.25 | 0.19 | 98 | 1017.9 |
| 20260903070624 | 68 | 247 | 0.0 | 1.0 | 0.08 | 0.25 | 0.19 | 98 | 1017.9 |
| 20260903070540 | 68 | 247 | 0.0 | 1.0 | 0.08 | 0.25 | 0.19 | 98 | 1017.9 |
| 20260903070416 | 68 | 247 | 0.0 | 1.0 | 0.07 | 0.24 | 0.19 | 98 | 1018.0 |
| 20260903070347 | 68 | 0.0 | 0.0 | 0.07 | 0.24 | 0.18 | 98 | 1018.0 | |
| 20260903070223 | 68 | 247 | 0.0 | 1.0 | 0.07 | 0.24 | 0.18 | 98 | 1018.1 |
| 20260903070138 | 68 | 247 | 1.0 | 1.0 | 0.07 | 0.23 | 0.17 | 98 | 1018.1 |
| 20260903070029 | 68 | 247 | 0.0 | 1.0 | 0.07 | 0.23 | 0.17 | 98 | 1018.2 |
| 20260903065945 | 68 | 247 | 1.0 | 1.0 | 0.06 | 0.23 | 0.17 | 98 | 1018.2 |
| 20260903065821 | 68 | 248 | 1.0 | 1.0 | 0.06 | 0.23 | 0.17 | 98 | 1018.2 |
| 20260903065716 | 68 | 248 | 1.0 | 1.0 | 0.06 | 0.22 | 0.17 | 98 | 1018.2 |
| 20260903065628 | 68 | 248 | 1.0 | 1.0 | 0.06 | 0.22 | 0.17 | 98 | 1018.3 |
| 20260903065524 | 68 | 248 | 1.0 | 1.0 | 0.06 | 0.22 | 0.16 | 98 | 1018.3 |
| 20260903065419 | 68 | 248 | 1.0 | 1.0 | 0.06 | 0.22 | 0.16 | 98 | 1018.2 |
| 20260903065331 | 68 | 248 | 1.0 | 1.0 | 0.05 | 0.22 | 0.16 | 98 | 1018.4 |
| 20260903065226 | 68 | 248 | 1.0 | 1.0 | 0.06 | 0.22 | 0.16 | 98 | 1018.3 |
| 20260903065122 | 68 | 249 | 1.0 | 1.0 | 0.05 | 0.21 | 0.15 | 98 | 1018.3 |
| 20260903065017 | 68 | 249 | 1.0 | 1.0 | 0.05 | 0.21 | 0.15 | 98 | 1018.6 |
| 20260903064929 | 68 | 249 | 1.0 | 1.0 | 0.05 | 0.21 | 0.15 | 98 | 1018.6 |
| 20260903064824 | 68 | 249 | 0.0 | 1.0 | 0.04 | 0.20 | 0.15 | 98 | 1018.6 |
| 20260903064740 | 68 | 0.0 | 0.0 | 0.05 | 0.20 | 0.15 | 98 | 1018.6 | |
| 20260903064615 | 68 | 249 | 0.0 | 1.0 | 0.05 | 0.20 | 0.15 | 98 | 1018.7 |
| 20260903064527 | 68 | 249 | 0.0 | 1.0 | 0.04 | 0.20 | 0.14 | 98 | 1018.6 |
| 20260903064422 | 68 | 0.0 | 0.0 | 0.04 | 0.20 | 0.14 | 98 | 1018.7 | |
| 20260903064318 | 68 | 249 | 1.0 | 1.0 | 0.04 | 0.20 | 0.14 | 98 | 1018.8 |
| 20260903064230 | 68 | 0.0 | 0.0 | 0.04 | 0.20 | 0.14 | 98 | 1018.6 | |
| 20260903064145 | 68 | 0.0 | 0.0 | 0.04 | 0.20 | 0.14 | 98 | 1018.7 | |
| 20260903064020 | 68 | 249 | 0.0 | 1.0 | 0.04 | 0.20 | 0.14 | 98 | 1018.7 |
| 20260903063936 | 68 | 249 | 0.0 | 1.0 | 0.04 | 0.20 | 0.14 | 98 | 1018.7 |
| 20260903063828 | 68 | 0.0 | 0.0 | 0.04 | 0.20 | 0.14 | 98 | 1018.7 | |
| 20260903063723 | 68 | 249 | 0.0 | 1.0 | 0.04 | 0.19 | 0.13 | 98 | 1018.8 |
| 20260903063619 | 68 | 0.0 | 0.0 | 0.04 | 0.19 | 0.13 | 98 | 1018.8 | |
| 20260903063531 | 68 | 250 | 1.0 | 1.0 | 0.04 | 0.19 | 0.13 | 98 | 1018.9 |
| 20260903063426 | 68 | 249 | 1.0 | 1.0 | 0.04 | 0.19 | 0.13 | 98 | 1018.9 |
| 20260903063322 | 68 | 250 | 0.0 | 1.0 | 0.04 | 0.19 | 0.13 | 98 | 1018.9 |
| 20260903063237 | 68 | 250 | 0.0 | 1.0 | 0.04 | 0.19 | 0.13 | 98 | 1018.8 |
| 20260903063129 | 68 | 250 | 0.0 | 1.0 | 0.04 | 0.19 | 0.13 | 98 | 1018.8 |
| 20260903063045 | 68 | 250 | 1.0 | 1.0 | 0.04 | 0.19 | 0.13 | 98 | 1018.8 |
| 20260903062920 | 68 | 250 | 1.0 | 1.0 | 0.04 | 0.19 | 0.13 | 98 | 1018.7 |
| 20260903062816 | 68 | 250 | 1.0 | 2.0 | 0.04 | 0.19 | 0.13 | 98 | 1018.7 |
| 20260903062728 | 68 | 249 | 1.0 | 1.0 | 0.05 | 0.19 | 0.13 | 98 | 1018.7 |
| 20260903062623 | 68 | 249 | 1.0 | 2.0 | 0.05 | 0.19 | 0.13 | 98 | 1018.7 |
| 20260903062519 | 68 | 248 | 2.0 | 2.0 | 0.05 | 0.18 | 0.12 | 98 | 1018.5 |
| 20260903062430 | 68 | 248 | 1.0 | 2.0 | 0.05 | 0.18 | 0.12 | 98 | 1018.7 |
| 20260903062346 | 68 | 248 | 1.0 | 2.0 | 0.06 | 0.18 | 0.12 | 98 | 1018.8 |
| 20260903062221 | 68 | 248 | 1.0 | 1.0 | 0.06 | 0.18 | 0.12 | 98 | 1018.5 |
| 20260903062117 | 68 | 248 | 1.0 | 1.0 | 0.06 | 0.18 | 0.12 | 98 | 1018.5 |
| 20260903062029 | 68 | 248 | 1.0 | 1.0 | 0.06 | 0.18 | 0.12 | 98 | 1018.5 |
| 20260903061944 | 68 | 248 | 1.0 | 1.0 | 0.06 | 0.18 | 0.12 | 98 | 1018.5 |
| 20260903061820 | 68 | 248 | 0.0 | 1.0 | 0.06 | 0.18 | 0.12 | 98 | 1018.4 |
| 20260903061715 | 68 | 0.0 | 0.0 | 0.07 | 0.18 | 0.12 | 98 | 1018.4 | |
| 20260903061627 | 68 | 0.0 | 0.0 | 0.07 | 0.18 | 0.12 | 98 | 1018.5 | |
| 20260903061543 | 68 | 248 | 0.0 | 1.0 | 0.06 | 0.17 | 0.11 | 98 | 1018.5 |
| 20260903061418 | 68 | 248 | 1.0 | 2.0 | 0.06 | 0.17 | 0.11 | 98 | 1018.5 |
| 20260903061330 | 68 | 248 | 1.0 | 1.0 | 0.07 | 0.17 | 0.11 | 98 | 1018.6 |
| 20260903061225 | 68 | 248 | 1.0 | 2.0 | 0.07 | 0.17 | 0.11 | 98 | 1018.6 |
| 20260903061141 | 68 | 248 | 0.0 | 1.0 | 0.07 | 0.17 | 0.11 | 98 | 1018.5 |
| 20260903061016 | 68 | 248 | 1.0 | 1.0 | 0.07 | 0.17 | 0.11 | 98 | 1018.6 |
| 20260903060928 | 68 | 248 | 0.0 | 1.0 | 0.07 | 0.17 | 0.11 | 98 | 1018.5 |
| 20260903060823 | 68 | 248 | 0.0 | 1.0 | 0.07 | 0.17 | 0.11 | 98 | 1018.6 |
| 20260903060719 | 68 | 248 | 1.0 | 2.0 | 0.07 | 0.17 | 0.11 | 98 | 1018.6 |
| 20260903060631 | 68 | 248 | 1.0 | 2.0 | 0.07 | 0.17 | 0.11 | 98 | 1018.6 |
| 20260903060526 | 68 | 237 | 2.0 | 2.0 | 0.07 | 0.17 | 0.11 | 98 | 1018.7 |
| 20260903060442 | 68 | 232 | 2.0 | 2.0 | 0.07 | 0.17 | 0.11 | 98 | 1018.6 |
| 20260903060317 | 68 | 231 | 1.0 | 2.0 | 0.07 | 0.17 | 0.11 | 98 | 1018.4 |
| 20260903060233 | 68 | 218 | 2.0 | 2.0 | 0.07 | 0.17 | 0.11 | 98 | 1018.5 |
| 20260903060125 | 68 | 160 | 1.0 | 1.0 | 0.07 | 0.17 | 0.11 | 97 | 1018.4 |
| 20260903060020 | 68 | 159 | 0.0 | 1.0 | 0.07 | 0.17 | 0.11 | 97 | 1018.4 |
| 20260903055916 | 68 | 0.0 | 0.0 | 0.07 | 0.17 | 0.11 | 97 | 1018.3 | |
| 20260903055827 | 68 | 0.0 | 0.0 | 0.07 | 0.17 | 0.11 | 97 | 1018.2 | |
| 20260903055722 | 68 | 159 | 0.0 | 1.0 | 0.08 | 0.17 | 0.11 | 97 | 1018.1 |
| 20260903055658 | 68 | 159 | 0.0 | 1.0 | 0.08 | 0.17 | 0.11 | 97 | 1018.0 |
| 20260903055529 | 68 | 159 | 0.0 | 1.0 | 0.08 | 0.17 | 0.11 | 97 | 1018.1 |
| 20260903055425 | 68 | 158 | 1.0 | 2.0 | 0.08 | 0.17 | 0.11 | 97 | 1018.1 |
| 20260903055341 | 68 | 158 | 2.0 | 2.0 | 0.08 | 0.17 | 0.11 | 97 | 1018.1 |
| 20260903055216 | 68 | 212 | 2.0 | 3.0 | 0.07 | 0.16 | 0.10 | 97 | 1018.5 |
| 20260903055128 | 68 | 244 | 1.0 | 1.0 | 0.07 | 0.16 | 0.10 | 97 | 1018.5 |
| 20260903055024 | 68 | 244 | 0.0 | 1.0 | 0.07 | 0.16 | 0.10 | 97 | 1018.6 |
| 20260903054919 | 68 | 244 | 0.0 | 1.0 | 0.07 | 0.16 | 0.10 | 97 | 1018.7 |
| 20260903054831 | 68 | 244 | 1.0 | 1.0 | 0.07 | 0.16 | 0.10 | 97 | 1018.5 |
| 20260903054746 | 68 | 244 | 0.0 | 1.0 | 0.07 | 0.16 | 0.10 | 97 | 1018.8 |
| 20260903054622 | 68 | 244 | 1.0 | 1.0 | 0.07 | 0.16 | 0.10 | 97 | 1018.9 |
| 20260903054537 | 68 | 244 | 1.0 | 1.0 | 0.07 | 0.16 | 0.10 | 97 | 1018.9 |
| 20260903054429 | 68 | 246 | 1.0 | 1.0 | 0.07 | 0.16 | 0.10 | 97 | 1019.0 |
| 20260903054325 | 68 | 247 | 1.0 | 1.0 | 0.07 | 0.16 | 0.10 | 97 | 1019.1 |
| 20260903054240 | 68 | 247 | 1.0 | 1.0 | 0.08 | 0.16 | 0.10 | 97 | 1019.1 |
| 20260903054116 | 68 | 247 | 1.0 | 1.0 | 0.08 | 0.16 | 0.10 | 97 | 1019.4 |
| 20260903054027 | 68 | 247 | 0.0 | 1.0 | 0.08 | 0.16 | 0.10 | 97 | 1019.4 |
| 20260903053922 | 68 | 0.0 | 0.0 | 0.08 | 0.15 | 0.09 | 97 | 1019.4 | |
| 20260903053818 | 68 | 0.0 | 0.0 | 0.08 | 0.15 | 0.09 | 97 | 1019.5 | |
| 20260903053730 | 68 | 0.0 | 0.0 | 0.08 | 0.15 | 0.09 | 97 | 1019.4 | |
| 20260903053625 | 68 | 0.0 | 0.0 | 0.08 | 0.15 | 0.09 | 97 | 1019.4 | |
| 20260903053521 | 68 | 0.0 | 0.0 | 0.07 | 0.15 | 0.09 | 97 | 1019.6 | |
| 20260903053436 | 68 | 0.0 | 0.0 | 0.08 | 0.15 | 0.09 | 97 | 1019.5 | |
| 20260903053328 | 68 | 0.0 | 0.0 | 0.08 | 0.15 | 0.09 | 97 | 1019.5 | |
| 20260903053223 | 68 | 0.0 | 0.0 | 0.08 | 0.15 | 0.09 | 97 | 1019.8 | |
| 20260903053119 | 68 | 0.0 | 0.0 | 0.07 | 0.15 | 0.09 | 97 | 1019.8 | |
| 20260903053030 | 68 | 248 | 0.0 | 1.0 | 0.07 | 0.15 | 0.09 | 97 | 1019.7 |
| 20260903052926 | 68 | 0.0 | 0.0 | 0.07 | 0.14 | 0.08 | 97 | 1019.6 | |
| 20260903052821 | 68 | 0.0 | 0.0 | 0.07 | 0.14 | 0.08 | 97 | 1019.6 | |
| 20260903052717 | 68 | 0.0 | 0.0 | 0.07 | 0.14 | 0.08 | 97 | 1019.6 | |
| 20260903052628 | 68 | 0.0 | 0.0 | 0.07 | 0.13 | 0.07 | 97 | 1019.6 | |
| 20260903052524 | 68 | 0.0 | 0.0 | 0.06 | 0.13 | 0.07 | 97 | 1019.6 | |
| 20260903052419 | 68 | 0.0 | 0.0 | 0.06 | 0.13 | 0.07 | 97 | 1019.7 | |
| 20260903052351 | 68 | 247 | 0.0 | 1.0 | 0.06 | 0.13 | 0.07 | 97 | 1019.7 |
| 20260903052246 | 68 | 247 | 1.0 | 1.0 | 0.06 | 0.12 | 0.06 | 97 | 1019.6 |
| 20260903052122 | 68 | 248 | 1.0 | 1.0 | 0.06 | 0.12 | 0.06 | 97 | 1019.8 |
| 20260903052017 | 68 | 248 | 1.0 | 1.0 | 0.05 | 0.11 | 0.06 | 97 | 1019.9 |
| 20260903051929 | 68 | 0.0 | 0.0 | 0.05 | 0.11 | 0.06 | 97 | 1019.7 | |
| 20260903051825 | 68 | 249 | 0.0 | 1.0 | 0.05 | 0.11 | 0.06 | 97 | 1019.9 |
| 20260903051720 | 68 | 249 | 0.0 | 1.0 | 0.05 | 0.11 | 0.05 | 97 | 1020.0 |
| 20260903051616 | 69 | 249 | 1.0 | 1.0 | 0.05 | 0.11 | 0.05 | 97 | 1019.8 |
| 20260903051527 | 69 | 248 | 1.0 | 2.0 | 0.05 | 0.11 | 0.05 | 97 | 1020.0 |
| 20260903051423 | 69 | 249 | 1.0 | 1.0 | 0.05 | 0.11 | 0.05 | 97 | 1019.9 |
| 20260903051318 | 69 | 249 | 1.0 | 1.0 | 0.05 | 0.11 | 0.05 | 97 | 1019.9 |
| 20260903051230 | 69 | 249 | 2.0 | 2.0 | 0.05 | 0.11 | 0.05 | 97 | 1020.0 |
| 20260903051126 | 69 | 242 | 2.0 | 2.0 | 0.05 | 0.11 | 0.05 | 96 | 1020.0 |
| 20260903051021 | 69 | 239 | 1.0 | 1.0 | 0.04 | 0.10 | 0.04 | 96 | 1020.0 |
| 20260903050917 | 69 | 0.0 | 0.0 | 0.04 | 0.10 | 0.04 | 96 | 1020.0 | |
| 20260903050828 | 69 | 239 | 0.0 | 1.0 | 0.04 | 0.10 | 0.04 | 96 | 1020.1 |
| 20260903050723 | 69 | 0.0 | 0.0 | 0.04 | 0.10 | 0.04 | 96 | 1020.1 | |
| 20260903050619 | 69 | 0.0 | 0.0 | 0.04 | 0.10 | 0.04 | 96 | 1019.9 | |
| 20260903050531 | 69 | 239 | 1.0 | 1.0 | 0.04 | 0.09 | 0.04 | 96 | 1019.8 |
| 20260903050426 | 69 | 244 | 1.0 | 1.0 | 0.04 | 0.09 | 0.04 | 96 | 1019.8 |
| 20260903050322 | 69 | 256 | 0.0 | 1.0 | 0.04 | 0.09 | 0.04 | 96 | 1019.8 |
| 20260903050217 | 69 | 0.0 | 0.0 | 0.04 | 0.09 | 0.04 | 96 | 1020.0 | |
| 20260903050129 | 69 | 0.0 | 0.0 | 0.03 | 0.09 | 0.03 | 96 | 1020.0 | |
| 20260903050025 | 69 | 0.0 | 0.0 | 0.03 | 0.09 | 0.03 | 96 | 1020.1 | |
| 20260903045920 | 69 | 0.0 | 0.0 | 0.03 | 0.09 | 0.03 | 96 | 1020.1 | |
| 20260903045855 | 69 | 256 | 0.0 | 1.0 | 0.03 | 0.09 | 0.03 | 96 | 1020.1 |
| 20260903045727 | 69 | 256 | 0.0 | 1.0 | 0.03 | 0.09 | 0.03 | 96 | 1020.4 |
| 20260903045622 | 69 | 0.0 | 0.0 | 0.03 | 0.09 | 0.03 | 96 | 1020.4 | |
| 20260903045518 | 69 | 256 | 1.0 | 2.0 | 0.03 | 0.09 | 0.03 | 96 | 1020.7 |
| 20260903045430 | 69 | 256 | 0.0 | 1.0 | 0.03 | 0.09 | 0.03 | 96 | 1020.7 |
| 20260903045325 | 69 | 256 | 0.0 | 1.0 | 0.03 | 0.09 | 0.03 | 97 | 1020.7 |
| 20260903045221 | 69 | 256 | 1.0 | 2.0 | 0.03 | 0.09 | 0.03 | 96 | 1020.8 |
| 20260903045115 | 69 | 244 | 3.0 | 4.0 | 0.03 | 0.09 | 0.03 | 96 | 1020.9 |
| 20260903045048 | 69 | 260 | 2.0 | 3.0 | 0.03 | 0.09 | 0.03 | 96 | 1020.9 |
| 20260903044943 | 69 | 295 | 1.0 | 2.0 | 0.03 | 0.09 | 0.03 | 96 | 1020.9 |
| 20260903044838 | 69 | 306 | 2.0 | 2.0 | 0.03 | 0.09 | 0.03 | 96 | 1020.7 |
| 20260903044730 | 69 | 306 | 0.0 | 1.0 | 0.03 | 0.09 | 0.03 | 96 | 1020.8 |
| 20260903044705 | 69 | 306 | 0.0 | 1.0 | 0.02 | 0.08 | 0.02 | 96 | 1020.6 |
| 20260903044521 | 69 | 306 | 0.0 | 1.0 | 0.02 | 0.08 | 0.02 | 96 | 1020.7 |
| 20260903044436 | 69 | 306 | 1.0 | 3.0 | 0.02 | 0.08 | 0.02 | 96 | 1021.0 |
| 20260903044328 | 69 | 297 | 2.0 | 3.0 | 0.02 | 0.08 | 0.02 | 96 | 1020.8 |
| 20260903044244 | 69 | 298 | 3.0 | 3.0 | 0.02 | 0.08 | 0.02 | 96 | 1021.0 |
| 20260903044151 | 69 | 297 | 1.0 | 3.0 | 0.02 | 0.08 | 0.02 | 96 | 1020.9 |
| 20260903043926 | 69 | 293 | 3.0 | 6.0 | 0.02 | 0.07 | 0.02 | 96 | 1020.7 |
| 20260903043822 | 69 | 259 | 2.0 | 3.0 | 0.02 | 0.07 | 0.02 | 96 | 1020.7 |
| 20260903043717 | 69 | 246 | 1.0 | 2.0 | 0.02 | 0.07 | 0.02 | 96 | 1020.9 |
| 20260903043629 | 69 | 233 | 1.0 | 2.0 | 0.02 | 0.07 | 0.02 | 96 | 1020.9 |
| 20260903043544 | 69 | 270 | 2.0 | 3.0 | 0.02 | 0.07 | 0.02 | 96 | 1020.8 |
| 20260903043420 | 69 | 291 | 2.0 | 3.0 | 0.01 | 0.07 | 0.01 | 96 | 1020.7 |
| 20260903043316 | 69 | 228 | 2.0 | 3.0 | 0.01 | 0.07 | 0.01 | 96 | 1020.7 |
| 20260903043247 | 69 | 207 | 1.0 | 2.0 | 0.01 | 0.07 | 0.01 | 96 | 1020.5 |
| 20260903043143 | 69 | 189 | 1.0 | 2.0 | 0.01 | 0.07 | 0.01 | 96 | 1020.5 |
| 20260903043018 | 69 | 171 | 1.0 | 2.0 | 0.01 | 0.07 | 0.01 | 96 | 1020.6 |
| 20260903042930 | 69 | 126 | 1.0 | 2.0 | 0.01 | 0.07 | 0.01 | 96 | 1020.4 |
| 20260903042845 | 69 | 103 | 1.0 | 1.0 | 0.01 | 0.07 | 0.01 | 96 | 1020.3 |
| 20260903042721 | 69 | 102 | 1.0 | 1.0 | 0.01 | 0.07 | 0.01 | 96 | 1020.2 |
| 20260903042616 | 69 | 102 | 0.0 | 1.0 | 0.01 | 0.07 | 0.01 | 96 | 1020.1 |
| 20260903042528 | 69 | 0.0 | 0.0 | 0.01 | 0.07 | 0.01 | 96 | 1020.2 | |
| 20260903042424 | 69 | 0.0 | 0.0 | 0.01 | 0.07 | 0.01 | 96 | 1020.2 | |
| 20260903042319 | 69 | 0.0 | 0.0 | 0.01 | 0.07 | 0.01 | 96 | 1020.2 | |
| 20260903042231 | 69 | 0.0 | 0.0 | 0.01 | 0.07 | 0.01 | 96 | 1020.2 | |
| 20260903042126 | 69 | 0.0 | 0.0 | 0.00 | 0.06 | 0.00 | 96 | 1020.2 | |
| 20260903042042 | 69 | 0.0 | 0.0 | 0.00 | 0.06 | 0.00 | 96 | 1020.2 | |
| 20260903041937 | 69 | 0.0 | 0.0 | 0.00 | 0.06 | 0.00 | 96 | 1020.4 | |
| 20260903041849 | 69 | 0.0 | 0.0 | 0.00 | 0.06 | 0.00 | 96 | 1020.3 | |
| 20260903041725 | 69 | 0.0 | 0.0 | 0.00 | 0.06 | 0.00 | 96 | 1020.4 | |
| 20260903041640 | 69 | 0.0 | 0.0 | 0.00 | 0.06 | 0.00 | 96 | 1020.4 | |
| 20260903041516 | 69 | 0.0 | 0.0 | 0.00 | 0.06 | 0.00 | 96 | 1020.3 | |
| 20260903041427 | 69 | 102 | 0.0 | 1.0 | 0.00 | 0.06 | 0.00 | 96 | 1020.2 |
| 20260903041322 | 69 | 0.0 | 0.0 | 0.00 | 0.06 | 0.00 | 96 | 1020.2 | |
| 20260903041218 | 69 | 0.0 | 0.0 | 0.00 | 0.06 | 0.00 | 96 | 1020.3 | |
| 20260903041130 | 69 | 0.0 | 0.0 | 0.00 | 0.06 | 0.00 | 96 | 1020.4 | |
| 20260903041025 | 69 | 0.0 | 0.0 | 0.00 | 0.06 | 0.00 | 96 | 1020.3 | |
| 20260903040921 | 69 | 0.0 | 0.0 | 0.00 | 0.06 | 0.00 | 96 | 1020.3 | |
| 20260903040816 | 69 | 0.0 | 0.0 | 0.00 | 0.06 | 0.00 | 96 | 1020.4 | |
| 20260903040728 | 69 | 0.0 | 0.0 | 0.00 | 0.06 | 0.00 | 96 | 1020.3 | |
| 20260903040623 | 69 | 0.0 | 0.0 | 0.00 | 0.06 | 0.00 | 96 | 1020.3 | |
| 20260903040519 | 69 | 0.0 | 0.0 | 0.00 | 0.06 | 0.00 | 96 | 1020.4 | |
| 20260903040430 | 69 | 0.0 | 0.0 | 0.00 | 0.06 | 0.00 | 96 | 1020.5 | |
| 20260903040406 | 69 | 0.0 | 0.0 | 0.00 | 0.06 | 0.00 | 96 | 1020.5 | |
| 20260903040221 | 69 | 0.0 | 0.0 | 0.00 | 0.06 | 0.00 | 96 | 1020.5 | |
| 20260903040117 | 69 | 0.0 | 0.0 | 0.00 | 0.06 | 0.00 | 96 | 1020.5 | |
| 20260903040029 | 69 | 0.0 | 0.0 | 0.00 | 0.06 | 0.06 | 96 | 1020.6 | |
| 20260903035924 | 69 | 0.0 | 0.0 | 0.00 | 0.06 | 0.06 | 96 | 1020.5 | |
| 20260903035820 | 69 | 0.0 | 0.0 | 0.00 | 0.06 | 0.06 | 96 | 1020.5 | |
| 20260903035716 | 69 | 0.0 | 0.0 | 0.00 | 0.06 | 0.06 | 96 | 1020.8 | |
| 20260903035627 | 69 | 0.0 | 0.0 | 0.00 | 0.06 | 0.06 | 96 | 1020.5 | |
| 20260903035523 | 69 | 0.0 | 0.0 | 0.00 | 0.06 | 0.06 | 96 | 1020.5 | |
| 20260903035438 | 69 | 0.0 | 0.0 | 0.00 | 0.06 | 0.06 | 96 | 1020.5 | |
| 20260903035330 | 69 | 0.0 | 0.0 | 0.00 | 0.06 | 0.06 | 96 | 1020.4 | |
| 20260903035226 | 69 | 0.0 | 0.0 | 0.00 | 0.06 | 0.06 | 96 | 1020.6 | |
| 20260903035121 | 69 | 0.0 | 0.0 | 0.00 | 0.06 | 0.06 | 96 | 1020.6 | |
| 20260903035017 | 69 | 103 | 0.0 | 1.0 | 0.00 | 0.06 | 0.06 | 96 | 1020.6 |
| 20260903034929 | 69 | 103 | 1.0 | 1.0 | 0.00 | 0.06 | 0.06 | 96 | 1020.7 |
| 20260903034844 | 69 | 102 | 1.0 | 2.0 | 0.00 | 0.06 | 0.06 | 96 | 1020.5 |
| 20260903034719 | 69 | 99 | 1.0 | 1.0 | 0.00 | 0.06 | 0.06 | 96 | 1020.5 |
| 20260903034651 | 69 | 98 | 0.0 | 1.0 | 0.00 | 0.06 | 0.06 | 96 | 1020.5 |
| 20260903034527 | 69 | 0.0 | 0.0 | 0.00 | 0.06 | 0.06 | 96 | 1020.2 | |
| 20260903034422 | 68 | 0.0 | 0.0 | 0.00 | 0.06 | 0.06 | 96 | 1020.2 | |
| 20260903034338 | 69 | 0.0 | 0.0 | 0.00 | 0.06 | 0.06 | 96 | 1020.3 | |
| 20260903034230 | 69 | 0.0 | 0.0 | 0.00 | 0.06 | 0.06 | 96 | 1020.2 | |
| 20260903034125 | 68 | 0.0 | 0.0 | 0.00 | 0.06 | 0.06 | 96 | 1020.2 | |
| 20260903034021 | 68 | 0.0 | 0.0 | 0.00 | 0.06 | 0.06 | 96 | 1020.1 | |
| 20260903033916 | 69 | 0.0 | 0.0 | 0.00 | 0.06 | 0.06 | 96 | 1020.1 | |
| 20260903033828 | 69 | 0.0 | 0.0 | 0.00 | 0.06 | 0.06 | 96 | 1020.2 | |
| 20260903033723 | 68 | 0.0 | 0.0 | 0.00 | 0.06 | 0.06 | 96 | 1020.1 | |
| 20260903033619 | 68 | 0.0 | 0.0 | 0.00 | 0.06 | 0.06 | 96 | 1020.1 | |
| 20260903033551 | 68 | 0.0 | 0.0 | 0.00 | 0.06 | 0.06 | 96 | 1020.1 | |
| 20260903033426 | 68 | 0.0 | 0.0 | 0.00 | 0.06 | 0.06 | 96 | 1020.2 | |
| 20260903033321 | 69 | 0.0 | 0.0 | 0.00 | 0.06 | 0.06 | 96 | 1020.2 | |
| 20260903033217 | 69 | 0.0 | 0.0 | 0.00 | 0.06 | 0.06 | 96 | 1020.2 | |
| 20260903033129 | 68 | 0.0 | 0.0 | 0.00 | 0.06 | 0.06 | 96 | 1020.1 | |
| 20260903033104 | 68 | 0.0 | 0.0 | 0.00 | 0.06 | 0.06 | 96 | 1020.2 | |
| 20260903032920 | 69 | 0.0 | 0.0 | 0.00 | 0.06 | 0.06 | 96 | 1020.3 | |
| 20260903032815 | 68 | 0.0 | 0.0 | 0.00 | 0.06 | 0.06 | 96 | 1020.4 | |
| 20260903032747 | 68 | 0.0 | 0.0 | 0.00 | 0.06 | 0.06 | 96 | 1020.3 | |
| 20260903032622 | 68 | 0.0 | 0.0 | 0.00 | 0.06 | 0.06 | 96 | 1020.4 | |
| 20260903032518 | 68 | 0.0 | 0.0 | 0.00 | 0.06 | 0.06 | 96 | 1020.3 | |
| 20260903032429 | 68 | 0.0 | 0.0 | 0.00 | 0.06 | 0.06 | 96 | 1020.4 | |
| 20260903032325 | 68 | 0.0 | 0.0 | 0.00 | 0.06 | 0.06 | 96 | 1020.3 | |
| 20260903032221 | 68 | 0.0 | 0.0 | 0.00 | 0.06 | 0.06 | 96 | 1020.2 | |
| 20260903032116 | 68 | 0.0 | 0.0 | 0.00 | 0.06 | 0.06 | 96 | 1020.1 | |
| 20260903032048 | 68 | 0.0 | 0.0 | 0.00 | 0.06 | 0.06 | 96 | 1020.4 | |
| 20260903031924 | 68 | 0.0 | 0.0 | 0.00 | 0.06 | 0.06 | 96 | 1020.2 | |
| 20260903031819 | 68 | 0.0 | 0.0 | 0.00 | 0.06 | 0.06 | 96 | 1020.2 | |
| 20260903031715 | 68 | 0.0 | 0.0 | 0.00 | 0.06 | 0.06 | 96 | 1020.4 | |
| 20260903031627 | 68 | 0.0 | 0.0 | 0.00 | 0.06 | 0.06 | 96 | 1020.1 | |
| 20260903031522 | 68 | 0.0 | 0.0 | 0.00 | 0.06 | 0.06 | 96 | 1020.2 | |
| 20260903031418 | 68 | 0.0 | 0.0 | 0.00 | 0.06 | 0.06 | 96 | 1020.2 | |
| 20260903031329 | 68 | 0.0 | 0.0 | 0.00 | 0.06 | 0.06 | 96 | 1020.3 | |
| 20260903031225 | 68 | 0.0 | 0.0 | 0.00 | 0.06 | 0.06 | 96 | 1020.2 | |
| 20260903031120 | 68 | 0.0 | 0.0 | 0.00 | 0.06 | 0.06 | 96 | 1020.2 | |
| 20260903031016 | 68 | 98 | 0.0 | 1.0 | 0.00 | 0.06 | 0.06 | 96 | 1020.5 |
| 20260903030928 | 68 | 98 | 0.0 | 1.0 | 0.00 | 0.06 | 0.06 | 96 | 1020.1 |
| 20260903030823 | 68 | 0.0 | 0.0 | 0.00 | 0.06 | 0.06 | 95 | 1020.0 | |
| 20260903030719 | 68 | 0.0 | 0.0 | 0.00 | 0.06 | 0.06 | 96 | 1020.1 | |
| 20260903030651 | 68 | 0.0 | 0.0 | 0.00 | 0.06 | 0.06 | 96 | 1020.2 | |
| 20260903030526 | 68 | 0.0 | 0.0 | 0.00 | 0.06 | 0.06 | 95 | 1020.2 | |
| 20260903030422 | 68 | 0.0 | 0.0 | 0.00 | 0.06 | 0.06 | 95 | 1020.0 | |
| 20260903030329 | 68 | 0.0 | 0.0 | 0.00 | 0.06 | 0.06 | 95 | 1020.3 | |
| 20260903030124 | 68 | 0.0 | 0.0 | 0.00 | 0.06 | 0.06 | 95 | 1020.2 | |
| 20260903030020 | 68 | 0.0 | 0.0 | 0.00 | 0.06 | 0.06 | 95 | 1020.3 | |
| 20260903025915 | 68 | 0.0 | 0.0 | 0.00 | 0.06 | 0.06 | 95 | 1020.4 | |
| 20260903025827 | 68 | 98 | 0.0 | 1.0 | 0.00 | 0.06 | 0.06 | 95 | 1020.2 |
| 20260903025742 | 68 | 98 | 0.0 | 1.0 | 0.00 | 0.06 | 0.06 | 95 | 1020.4 |
| 20260903025618 | 68 | 0.0 | 0.0 | 0.00 | 0.06 | 0.06 | 95 | 1020.2 | |
| 20260903025530 | 68 | 0.0 | 0.0 | 0.00 | 0.06 | 0.06 | 95 | 1020.0 | |
| 20260903025425 | 68 | 0.0 | 0.0 | 0.00 | 0.06 | 0.06 | 95 | 1020.0 | |
| 20260903025321 | 68 | 0.0 | 0.0 | 0.00 | 0.06 | 0.06 | 95 | 1020.3 | |
| 20260903025236 | 68 | 0.0 | 0.0 | 0.00 | 0.06 | 0.06 | 95 | 1020.1 | |
| 20260903025128 | 68 | 0.0 | 0.0 | 0.00 | 0.06 | 0.06 | 95 | 1020.1 | |
| 20260903025023 | 68 | 0.0 | 0.0 | 0.00 | 0.06 | 0.06 | 95 | 1020.1 | |
| 20260903024919 | 68 | 0.0 | 0.0 | 0.00 | 0.06 | 0.06 | 95 | 1020.2 | |
| 20260903024831 | 68 | 0.0 | 0.0 | 0.00 | 0.06 | 0.06 | 95 | 1020.2 | |
| 20260903024726 | 68 | 0.0 | 0.0 | 0.00 | 0.06 | 0.06 | 95 | 1020.4 | |
| 20260903024622 | 68 | 0.0 | 0.0 | 0.00 | 0.06 | 0.06 | 95 | 1020.3 | |
| 20260903024517 | 68 | 0.0 | 0.0 | 0.00 | 0.06 | 0.06 | 95 | 1020.2 | |
| 20260903024429 | 68 | 0.0 | 0.0 | 0.00 | 0.06 | 0.06 | 95 | 1020.2 | |
| 20260903024325 | 68 | 0.0 | 0.0 | 0.00 | 0.06 | 0.06 | 95 | 1020.2 | |
| 20260903024227 | 68 | 0.0 | 0.0 | 0.00 | 0.06 | 0.06 | 95 | 1020.0 | |
| 20260903023922 | 68 | 0.0 | 0.0 | 0.00 | 0.06 | 0.06 | 95 | 1020.2 | |
| 20260903023818 | 68 | 0.0 | 0.0 | 0.00 | 0.06 | 0.06 | 95 | 1020.2 | |
| 20260903023730 | 68 | 0.0 | 0.0 | 0.00 | 0.06 | 0.06 | 95 | 1020.2 | |
| 20260903023625 | 68 | 0.0 | 0.0 | 0.00 | 0.06 | 0.06 | 95 | 1020.2 | |
| 20260903023521 | 68 | 0.0 | 0.0 | 0.00 | 0.06 | 0.06 | 95 | 1020.3 | |
| 20260903023416 | 68 | 0.0 | 0.0 | 0.00 | 0.06 | 0.06 | 95 | 1020.3 | |
| 20260903023328 | 68 | 0.0 | 0.0 | 0.00 | 0.06 | 0.06 | 95 | 1020.2 | |
| 20260903023223 | 68 | 0.0 | 0.0 | 0.00 | 0.06 | 0.06 | 95 | 1020.3 | |
| 20260903023118 | 68 | 0.0 | 0.0 | 0.00 | 0.06 | 0.06 | 95 | 1020.4 | |
| 20260903023030 | 68 | 0.0 | 0.0 | 0.00 | 0.06 | 0.06 | 95 | 1020.3 | |
| 20260903022925 | 68 | 98 | 0.0 | 1.0 | 0.00 | 0.06 | 0.06 | 95 | 1020.3 |
| 20260903022821 | 68 | 0.0 | 0.0 | 0.00 | 0.06 | 0.06 | 95 | 1020.6 | |
| 20260903022716 | 68 | 97 | 0.0 | 1.0 | 0.00 | 0.06 | 0.06 | 95 | 1020.6 |
| 20260903022647 | 68 | 0.0 | 0.0 | 0.00 | 0.06 | 0.06 | 95 | 1020.5 | |
| 20260903022522 | 68 | 0.0 | 0.0 | 0.00 | 0.06 | 0.06 | 95 | 1020.6 | |
| 20260903022418 | 68 | 0.0 | 0.0 | 0.00 | 0.06 | 0.06 | 95 | 1020.6 | |
| 20260903022329 | 68 | 0.0 | 0.0 | 0.00 | 0.06 | 0.06 | 95 | 1020.6 | |
| 20260903022225 | 68 | 0.0 | 0.0 | 0.00 | 0.06 | 0.06 | 95 | 1020.6 | |
| 20260903022121 | 68 | 0.0 | 0.0 | 0.00 | 0.06 | 0.06 | 95 | 1020.6 | |
| 20260903022016 | 68 | 0.0 | 0.0 | 0.00 | 0.06 | 0.06 | 95 | 1020.6 | |
| 20260903021928 | 68 | 0.0 | 0.0 | 0.00 | 0.06 | 0.06 | 95 | 1020.8 | |
| 20260903021823 | 68 | 0.0 | 0.0 | 0.00 | 0.06 | 0.06 | 95 | 1021.0 | |
| 20260903021719 | 68 | 0.0 | 0.0 | 0.00 | 0.06 | 0.06 | 95 | 1021.0 | |
| 20260903021650 | 68 | 0.0 | 0.0 | 0.00 | 0.06 | 0.06 | 95 | 1020.9 | |
| 20260903021545 | 68 | 0.0 | 0.0 | 0.00 | 0.06 | 0.06 | 95 | 1020.8 | |
| 20260903021421 | 68 | 0.0 | 0.0 | 0.00 | 0.06 | 0.06 | 95 | 1020.7 | |
| 20260903021316 | 68 | 0.0 | 0.0 | 0.00 | 0.06 | 0.06 | 95 | 1020.7 | |
| 20260903021228 | 68 | 0.0 | 0.0 | 0.00 | 0.06 | 0.06 | 95 | 1020.8 | |
| 20260903021123 | 68 | 0.0 | 0.0 | 0.00 | 0.06 | 0.06 | 95 | 1020.8 | |
| 20260903021019 | 68 | 97 | 1.0 | 1.0 | 0.00 | 0.06 | 0.06 | 95 | 1020.9 |
| 20260903020931 | 68 | 97 | 1.0 | 1.0 | 0.00 | 0.06 | 0.06 | 95 | 1020.6 |
| 20260903020826 | 68 | 97 | 1.0 | 1.0 | 0.00 | 0.06 | 0.06 | 95 | 1020.7 |
| 20260903020722 | 68 | 0.0 | 0.0 | 0.00 | 0.06 | 0.06 | 95 | 1020.6 | |
| 20260903020617 | 68 | 98 | 0.0 | 1.0 | 0.00 | 0.06 | 0.06 | 95 | 1020.5 |
| 20260903020549 | 68 | 0.0 | 0.0 | 0.00 | 0.06 | 0.06 | 95 | 1020.4 | |
| 20260903020425 | 68 | 0.0 | 0.0 | 0.00 | 0.06 | 0.06 | 95 | 1020.3 | |
| 20260903020320 | 68 | 0.0 | 0.0 | 0.00 | 0.06 | 0.06 | 95 | 1020.3 | |
| 20260903020215 | 68 | 0.0 | 0.0 | 0.00 | 0.06 | 0.06 | 95 | 1020.4 | |
| 20260903020127 | 68 | 0.0 | 0.0 | 0.00 | 0.06 | 0.06 | 95 | 1020.5 | |
| 20260903020041 | 68 | 0.0 | 0.0 | 0.00 | 0.06 | 0.06 | 95 | 1020.3 | |
| 20260903015916 | 68 | 98 | 1.0 | 1.0 | 0.00 | 0.06 | 0.06 | 95 | 1020.4 |
| 20260903015828 | 68 | 96 | 1.0 | 3.0 | 0.00 | 0.06 | 0.06 | 95 | 1020.3 |
| 20260903015723 | 68 | 95 | 1.0 | 3.0 | 0.00 | 0.06 | 0.06 | 95 | 1020.2 |
| 20260903015639 | 68 | 0.0 | 0.0 | 0.00 | 0.06 | 0.06 | 95 | 1020.0 | |
| 20260903015531 | 68 | 0.0 | 0.0 | 0.00 | 0.06 | 0.06 | 95 | 1020.3 | |
| 20260903015426 | 68 | 96 | 0.0 | 1.0 | 0.00 | 0.06 | 0.06 | 95 | 1020.3 |
| 20260903015322 | 68 | 96 | 0.0 | 1.0 | 0.00 | 0.06 | 0.06 | 95 | 1020.3 |
| 20260903015256 | 68 | 0.0 | 0.0 | 0.00 | 0.06 | 0.06 | 95 | 1020.2 | |
| 20260903015148 | 68 | 96 | 0.0 | 1.0 | 0.00 | 0.06 | 0.06 | 95 | 1020.3 |
| 20260903015024 | 68 | 96 | 0.0 | 1.0 | 0.00 | 0.06 | 0.06 | 95 | 1020.4 |
| 20260903014919 | 68 | 0.0 | 0.0 | 0.00 | 0.06 | 0.06 | 95 | 1020.4 | |
| 20260903014831 | 68 | 0.0 | 0.0 | 0.00 | 0.06 | 0.06 | 95 | 1020.5 | |
| 20260903014726 | 68 | 0.0 | 0.0 | 0.00 | 0.06 | 0.06 | 95 | 1020.3 | |
| 20260903014621 | 68 | 0.0 | 0.0 | 0.00 | 0.06 | 0.06 | 95 | 1020.3 | |
| 20260903014556 | 68 | 0.0 | 0.0 | 0.00 | 0.06 | 0.06 | 95 | 1020.3 | |
| 20260903014428 | 68 | 0.0 | 0.0 | 0.00 | 0.06 | 0.06 | 95 | 1020.3 | |
| 20260903014323 | 68 | 0.0 | 0.0 | 0.00 | 0.06 | 0.06 | 95 | 1020.3 | |
| 20260903014219 | 68 | 96 | 0.0 | 1.0 | 0.00 | 0.06 | 0.06 | 95 | 1020.5 |
| 20260903014131 | 68 | 96 | 0.0 | 1.0 | 0.00 | 0.06 | 0.06 | 95 | 1020.2 |
| 20260903014027 | 68 | 95 | 1.0 | 2.0 | 0.00 | 0.06 | 0.06 | 95 | 1020.4 |
| 20260903013921 | 68 | 96 | 0.0 | 1.0 | 0.00 | 0.06 | 0.06 | 95 | 1020.4 |
| 20260903013816 | 68 | 96 | 0.0 | 1.0 | 0.00 | 0.06 | 0.06 | 95 | 1020.6 |
| 20260903013728 | 68 | 96 | 0.0 | 1.0 | 0.00 | 0.06 | 0.06 | 95 | 1020.4 |
| 20260903013623 | 68 | 96 | 0.0 | 1.0 | 0.00 | 0.06 | 0.06 | 95 | 1020.4 |
| 20260903013518 | 68 | 96 | 1.0 | 1.0 | 0.00 | 0.06 | 0.06 | 95 | 1020.5 |
| 20260903013429 | 68 | 96 | 0.0 | 1.0 | 0.00 | 0.06 | 0.06 | 95 | 1020.6 |
| 20260903013345 | 68 | 0.0 | 0.0 | 0.00 | 0.06 | 0.06 | 95 | 1020.6 | |
| 20260903013239 | 68 | 0.0 | 0.0 | 0.00 | 0.06 | 0.06 | 94 | 1020.8 | |
| 20260903013130 | 68 | 0.0 | 0.0 | 0.00 | 0.06 | 0.06 | 94 | 1020.8 | |
| 20260903013026 | 68 | 0.0 | 0.0 | 0.00 | 0.06 | 0.06 | 94 | 1020.4 | |
| 20260903012921 | 68 | 0.0 | 0.0 | 0.00 | 0.06 | 0.06 | 94 | 1020.6 | |
| 20260903012816 | 68 | 96 | 0.0 | 1.0 | 0.00 | 0.06 | 0.06 | 94 | 1020.8 |
| 20260903012728 | 68 | 95 | 0.0 | 1.0 | 0.00 | 0.06 | 0.06 | 94 | 1020.7 |
| 20260903012623 | 68 | 0.0 | 0.0 | 0.00 | 0.06 | 0.06 | 94 | 1020.6 | |
| 20260903012518 | 68 | 0.0 | 0.0 | 0.00 | 0.06 | 0.06 | 94 | 1020.6 | |
| 20260903012430 | 68 | 0.0 | 0.0 | 0.00 | 0.06 | 0.06 | 94 | 1020.6 | |
| 20260903012346 | 68 | 0.0 | 0.0 | 0.00 | 0.06 | 0.06 | 94 | 1020.6 | |
| 20260903012221 | 68 | 0.0 | 0.0 | 0.00 | 0.06 | 0.06 | 94 | 1020.7 | |
| 20260903012116 | 68 | 0.0 | 0.0 | 0.00 | 0.06 | 0.06 | 94 | 1020.5 | |
| 20260903012108 | 68 | 0.0 | 0.0 | 0.00 | 0.06 | 0.06 | 94 | 1020.7 | |
| 20260903011923 | 68 | 0.0 | 0.0 | 0.00 | 0.06 | 0.06 | 94 | 1020.4 | |
| 20260903011819 | 68 | 0.0 | 0.0 | 0.00 | 0.06 | 0.06 | 94 | 1020.7 | |
| 20260903011731 | 68 | 0.0 | 0.0 | 0.00 | 0.06 | 0.06 | 94 | 1020.6 | |
| 20260903011625 | 68 | 0.0 | 0.0 | 0.00 | 0.06 | 0.06 | 94 | 1020.6 | |
| 20260903011521 | 68 | 0.0 | 0.0 | 0.00 | 0.06 | 0.06 | 94 | 1020.7 | |
| 20260903011417 | 68 | 0.0 | 0.0 | 0.00 | 0.06 | 0.06 | 94 | 1020.8 | |
| 20260903011328 | 68 | 0.0 | 0.0 | 0.00 | 0.06 | 0.06 | 94 | 1020.6 | |
| 20260903011243 | 68 | 0.0 | 0.0 | 0.00 | 0.06 | 0.06 | 94 | 1020.7 | |
| 20260903011138 | 68 | 0.0 | 0.0 | 0.00 | 0.06 | 0.06 | 94 | 1020.6 | |
| 20260903011030 | 68 | 0.0 | 0.0 | 0.00 | 0.06 | 0.06 | 94 | 1020.7 | |
| 20260903010944 | 68 | 0.0 | 0.0 | 0.00 | 0.06 | 0.06 | 94 | 1020.7 | |
| 20260903010820 | 68 | 0.0 | 0.0 | 0.00 | 0.06 | 0.06 | 94 | 1020.7 | |
| 20260903010716 | 68 | 0.0 | 0.0 | 0.00 | 0.06 | 0.06 | 94 | 1020.6 | |
| 20260903010647 | 68 | 0.0 | 0.0 | 0.00 | 0.06 | 0.06 | 94 | 1020.7 | |
| 20260903010522 | 68 | 0.0 | 0.0 | 0.00 | 0.06 | 0.06 | 94 | 1020.9 | |
| 20260903010416 | 68 | 0.0 | 0.0 | 0.00 | 0.06 | 0.06 | 94 | 1020.8 | |
| 20260903010328 | 68 | 0.0 | 0.0 | 0.00 | 0.06 | 0.06 | 94 | 1020.9 | |
| 20260903010223 | 68 | 0.0 | 0.0 | 0.00 | 0.06 | 0.06 | 94 | 1021.0 | |
| 20260903010118 | 68 | 0.0 | 0.0 | 0.00 | 0.06 | 0.06 | 94 | 1021.0 | |
| 20260903010029 | 68 | 0.0 | 0.0 | 0.00 | 0.06 | 0.06 | 94 | 1021.0 | |
| 20260903005924 | 68 | 0.0 | 0.0 | 0.00 | 0.06 | 0.06 | 94 | 1021.0 | |
| 20260903005820 | 68 | 0.0 | 0.0 | 0.00 | 0.06 | 0.06 | 94 | 1021.1 | |
| 20260903005731 | 68 | 0.0 | 0.0 | 0.00 | 0.06 | 0.06 | 94 | 1021.1 | |
| 20260903005626 | 68 | 0.0 | 0.0 | 0.00 | 0.06 | 0.06 | 94 | 1021.0 | |
| 20260903005521 | 68 | 0.0 | 0.0 | 0.00 | 0.06 | 0.06 | 94 | 1021.0 | |
| 20260903005416 | 68 | 0.0 | 0.0 | 0.00 | 0.06 | 0.06 | 94 | 1021.1 | |
| 20260903005327 | 68 | 0.0 | 0.0 | 0.00 | 0.06 | 0.06 | 94 | 1020.9 | |
| 20260903005222 | 68 | 0.0 | 0.0 | 0.00 | 0.06 | 0.06 | 94 | 1021.0 | |
| 20260903005119 | 68 | 0.0 | 0.0 | 0.00 | 0.06 | 0.06 | 93 | 1021.0 | |
| 20260903005030 | 68 | 0.0 | 0.0 | 0.00 | 0.06 | 0.06 | 93 | 1020.9 | |
| 20260903004925 | 68 | 0.0 | 0.0 | 0.00 | 0.06 | 0.06 | 93 | 1021.0 | |
| 20260903004820 | 68 | 0.0 | 0.0 | 0.00 | 0.06 | 0.06 | 93 | 1020.9 | |
| 20260903004715 | 68 | 0.0 | 0.0 | 0.00 | 0.06 | 0.06 | 93 | 1021.0 | |
| 20260903004627 | 68 | 101 | 0.0 | 1.0 | 0.00 | 0.06 | 0.06 | 93 | 1020.9 |
| 20260903004542 | 68 | 101 | 0.0 | 1.0 | 0.00 | 0.06 | 0.06 | 93 | 1021.0 |
| 20260903004417 | 68 | 101 | 0.0 | 1.0 | 0.00 | 0.06 | 0.06 | 93 | 1021.0 |
| 20260903004329 | 68 | 101 | 0.0 | 1.0 | 0.00 | 0.06 | 0.06 | 93 | 1021.1 |
| 20260903004224 | 68 | 0.0 | 0.0 | 0.00 | 0.06 | 0.06 | 93 | 1021.2 | |
| 20260903004119 | 68 | 0.0 | 0.0 | 0.00 | 0.06 | 0.06 | 93 | 1021.1 | |
| 20260903004030 | 68 | 0.0 | 0.0 | 0.00 | 0.06 | 0.06 | 93 | 1021.2 | |
| 20260903003925 | 68 | 0.0 | 0.0 | 0.00 | 0.06 | 0.06 | 93 | 1021.0 | |
| 20260903003820 | 68 | 0.0 | 0.0 | 0.00 | 0.06 | 0.06 | 93 | 1021.0 | |
| 20260903003716 | 68 | 0.0 | 0.0 | 0.00 | 0.06 | 0.06 | 93 | 1021.2 | |
| 20260903003628 | 68 | 0.0 | 0.0 | 0.00 | 0.06 | 0.06 | 93 | 1021.2 | |
| 20260903003523 | 68 | 0.0 | 0.0 | 0.00 | 0.06 | 0.06 | 93 | 1021.0 | |
| 20260903003419 | 68 | 0.0 | 0.0 | 0.00 | 0.06 | 0.06 | 93 | 1021.1 | |
| 20260903003330 | 68 | 0.0 | 0.0 | 0.00 | 0.06 | 0.06 | 92 | 1021.0 | |
| 20260903003246 | 68 | 0.0 | 0.0 | 0.00 | 0.06 | 0.06 | 92 | 1021.1 | |
| 20260903003121 | 68 | 0.0 | 0.0 | 0.00 | 0.06 | 0.06 | 92 | 1021.1 | |
| 20260903003056 | 68 | 0.0 | 0.0 | 0.00 | 0.06 | 0.06 | 92 | 1021.2 | |
| 20260903002928 | 68 | 0.0 | 0.0 | 0.00 | 0.06 | 0.06 | 92 | 1021.0 | |
| 20260903002824 | 68 | 0.0 | 0.0 | 0.00 | 0.06 | 0.06 | 92 | 1021.0 | |
| 20260903002719 | 68 | 0.0 | 0.0 | 0.00 | 0.06 | 0.06 | 92 | 1021.0 | |
| 20260903002631 | 68 | 0.0 | 0.0 | 0.00 | 0.06 | 0.06 | 92 | 1021.1 | |
| 20260903002526 | 68 | 0.0 | 0.0 | 0.00 | 0.06 | 0.06 | 92 | 1021.0 | |
| 20260903002422 | 68 | 0.0 | 0.0 | 0.00 | 0.06 | 0.06 | 92 | 1021.1 | |
| 20260903002317 | 68 | 101 | 0.0 | 1.0 | 0.00 | 0.06 | 0.06 | 92 | 1021.0 |
| 20260903002228 | 68 | 99 | 1.0 | 2.0 | 0.00 | 0.06 | 0.06 | 92 | 1021.0 |
| 20260903002123 | 68 | 0.0 | 0.0 | 0.00 | 0.06 | 0.06 | 92 | 1020.9 | |
| 20260903002018 | 68 | 88 | 0.0 | 1.0 | 0.00 | 0.06 | 0.06 | 92 | 1021.0 |
| 20260903001930 | 68 | 82 | 3.0 | 6.0 | 0.00 | 0.06 | 0.06 | 92 | 1021.1 |
| 20260903001826 | 68 | 75 | 0.0 | 1.0 | 0.00 | 0.06 | 0.06 | 92 | 1020.8 |
| 20260903001721 | 69 | 73 | 1.0 | 1.0 | 0.00 | 0.06 | 0.06 | 92 | 1020.7 |
| 20260903001616 | 69 | 73 | 1.0 | 1.0 | 0.00 | 0.06 | 0.06 | 92 | 1020.9 |
| 20260903001548 | 69 | 73 | 1.0 | 1.0 | 0.00 | 0.06 | 0.06 | 92 | 1020.7 |
| 20260903001423 | 69 | 73 | 1.0 | 1.0 | 0.00 | 0.06 | 0.06 | 92 | 1020.6 |
| 20260903001338 | 69 | 73 | 0.0 | 1.0 | 0.00 | 0.06 | 0.06 | 92 | 1020.6 |
| 20260903001230 | 69 | 0.0 | 0.0 | 0.00 | 0.06 | 0.06 | 92 | 1020.9 | |
| 20260903001125 | 69 | 73 | 1.0 | 2.0 | 0.00 | 0.06 | 0.06 | 91 | 1020.9 |
| 20260903001021 | 69 | 84 | 1.0 | 2.0 | 0.00 | 0.06 | 0.06 | 91 | 1020.8 |
| 20260903000936 | 69 | 77 | 0.0 | 1.0 | 0.00 | 0.06 | 0.06 | 91 | 1020.8 |
| 20260903000827 | 69 | 78 | 1.0 | 1.0 | 0.00 | 0.06 | 0.06 | 92 | 1020.7 |
| 20260903000722 | 69 | 78 | 1.0 | 1.0 | 0.00 | 0.06 | 0.06 | 92 | 1020.7 |
| 20260903000617 | 69 | 78 | 0.0 | 1.0 | 0.00 | 0.06 | 0.06 | 91 | 1020.7 |
| 20260903000528 | 69 | 79 | 2.0 | 3.0 | 0.00 | 0.06 | 0.06 | 91 | 1020.6 |
| 20260903000424 | 69 | 87 | 2.0 | 3.0 | 0.00 | 0.06 | 0.06 | 91 | 1020.6 |
| 20260903000319 | 69 | 114 | 0.0 | 1.0 | 0.00 | 0.06 | 0.06 | 91 | 1020.8 |
| 20260903000233 | 69 | 114 | 1.0 | 3.0 | 0.00 | 0.06 | 0.06 | 91 | 1020.7 |
| 20260903000125 | 69 | 104 | 1.0 | 1.0 | 0.00 | 0.06 | 0.06 | 91 | 1020.6 |
| 20260903000020 | 69 | 95 | 2.0 | 3.0 | 0.00 | 0.06 | 0.06 | 91 | 1020.6 |
| 20260902235916 | 69 | 86 | 2.0 | 4.0 | 0.00 | 0.06 | 0.06 | 91 | 1020.4 |
| 20260902235827 | 69 | 103 | 1.0 | 3.0 | 0.00 | 0.06 | 0.06 | 91 | 1020.6 |
| 20260902235723 | 69 | 92 | 3.0 | 4.0 | 0.00 | 0.06 | 0.06 | 91 | 1020.4 |
| 20260902235617 | 69 | 95 | 0.0 | 1.0 | 0.00 | 0.06 | 0.06 | 91 | 1020.4 |
| 20260902235529 | 69 | 95 | 1.0 | 2.0 | 0.00 | 0.06 | 0.06 | 91 | 1020.6 |
| 20260902235424 | 69 | 94 | 1.0 | 3.0 | 0.00 | 0.06 | 0.06 | 91 | 1020.5 |
| 20260902235320 | 69 | 87 | 3.0 | 3.0 | 0.00 | 0.06 | 0.06 | 91 | 1020.5 |
| 20260902235231 | 69 | 76 | 1.0 | 3.0 | 0.00 | 0.06 | 0.06 | 91 | 1020.7 |
| 20260902235126 | 69 | 86 | 1.0 | 1.0 | 0.00 | 0.06 | 0.06 | 91 | 1020.3 |
| 20260902235101 | 69 | 0.0 | 0.0 | 0.00 | 0.06 | 0.06 | 91 | 1020.3 | |
| 20260902234917 | 69 | 88 | 0.0 | 1.0 | 0.00 | 0.06 | 0.06 | 91 | 1020.6 |
| 20260902234828 | 69 | 0.0 | 0.0 | 0.00 | 0.07 | 0.06 | 91 | 1020.6 | |
| 20260902234724 | 69 | 0.0 | 0.0 | 0.00 | 0.07 | 0.06 | 91 | 1020.6 | |
| 20260902234640 | 69 | 86 | 1.0 | 2.0 | 0.00 | 0.08 | 0.06 | 90 | 1020.6 |
| 20260902234551 | 69 | 85 | 1.0 | 2.0 | 0.00 | 0.09 | 0.06 | 91 | 1020.5 |
| 20260902234426 | 69 | 88 | 0.0 | 1.0 | 0.00 | 0.10 | 0.06 | 91 | 1020.5 |
| 20260902234322 | 69 | 88 | 1.0 | 1.0 | 0.00 | 0.11 | 0.06 | 91 | 1020.4 |
| 20260902234217 | 69 | 89 | 1.0 | 2.0 | 0.00 | 0.12 | 0.06 | 90 | 1020.6 |
| 20260902234129 | 69 | 0.0 | 0.0 | 0.00 | 0.13 | 0.06 | 90 | 1020.6 | |
| 20260902234025 | 69 | 119 | 0.0 | 1.0 | 0.00 | 0.13 | 0.06 | 90 | 1020.6 |
| 20260902233940 | 69 | 119 | 1.0 | 3.0 | 0.00 | 0.13 | 0.06 | 91 | 1020.6 |
| 20260902233831 | 69 | 93 | 1.0 | 2.0 | 0.00 | 0.15 | 0.06 | 91 | 1020.5 |
| 20260902233726 | 69 | 90 | 1.0 | 2.0 | 0.00 | 0.18 | 0.06 | 91 | 1020.4 |
| 20260902233622 | 69 | 134 | 0.0 | 1.0 | 0.00 | 0.20 | 0.06 | 91 | 1020.4 |
| 20260902233517 | 69 | 0.0 | 0.0 | 0.00 | 0.27 | 0.06 | 90 | 1020.3 | |
| 20260902233428 | 69 | 0.0 | 0.0 | 0.00 | 0.29 | 0.06 | 91 | 1020.5 | |
| 20260902233323 | 69 | 137 | 1.0 | 2.0 | 0.00 | 0.29 | 0.06 | 91 | 1020.4 |
| 20260902233238 | 69 | 132 | 2.0 | 3.0 | 0.00 | 0.30 | 0.06 | 91 | 1020.3 |
| 20260902233129 | 69 | 71 | 1.0 | 3.0 | 0.00 | 0.31 | 0.06 | 91 | 1020.4 |
| 20260902233105 | 69 | 61 | 1.0 | 2.0 | 0.00 | 0.32 | 0.06 | 90 | 1020.5 |
| 20260902232940 | 69 | 77 | 1.0 | 1.0 | 0.00 | 0.33 | 0.06 | 90 | 1020.5 |
| 20260902232816 | 69 | 77 | 1.0 | 2.0 | 0.00 | 0.35 | 0.06 | 90 | 1020.4 |
| 20260902232727 | 69 | 78 | 4.0 | 6.0 | 0.00 | 0.35 | 0.06 | 90 | 1020.3 |
| 20260902232622 | 69 | 111 | 2.0 | 7.0 | 0.00 | 0.37 | 0.06 | 90 | 1020.2 |
| 20260902232518 | 69 | 136 | 1.0 | 1.0 | 0.00 | 0.38 | 0.06 | 90 | 1020.2 |
| 20260902232429 | 69 | 136 | 0.0 | 1.0 | 0.00 | 0.39 | 0.06 | 90 | 1020.4 |
| 20260902232325 | 69 | 0.0 | 0.0 | 0.00 | 0.40 | 0.06 | 90 | 1020.4 | |
| 20260902232220 | 69 | 136 | 1.0 | 1.0 | 0.00 | 0.44 | 0.06 | 90 | 1020.2 |
| 20260902232136 | 69 | 136 | 1.0 | 2.0 | 0.00 | 0.44 | 0.06 | 90 | 1020.3 |
| 20260902232027 | 69 | 119 | 3.0 | 4.0 | 0.00 | 0.46 | 0.06 | 90 | 1020.1 |
| 20260902231922 | 69 | 108 | 3.0 | 4.0 | 0.00 | 0.48 | 0.06 | 90 | 1020.1 |
| 20260902231817 | 69 | 104 | 3.0 | 4.0 | 0.00 | 0.52 | 0.06 | 90 | 1020.1 |
| 20260902231729 | 69 | 115 | 2.0 | 3.0 | 0.00 | 0.54 | 0.06 | 90 | 1020.2 |
| 20260902231625 | 69 | 80 | 1.0 | 3.0 | 0.00 | 0.56 | 0.06 | 90 | 1020.2 |
| 20260902231531 | 69 | 124 | 0.0 | 1.0 | 0.00 | 0.61 | 0.06 | 90 | 1020.2 |
| 20260902231326 | 69 | 0.0 | 0.0 | 0.00 | 0.69 | 0.06 | 89 | 1020.1 | |
| 20260902231221 | 69 | 119 | 1.0 | 2.0 | 0.00 | 0.77 | 0.06 | 89 | 1020.2 |
| 20260902231117 | 69 | 104 | 3.0 | 4.0 | 0.00 | 0.84 | 0.06 | 89 | 1020.3 |
| 20260902231028 | 69 | 94 | 1.0 | 2.0 | 0.00 | 0.88 | 0.06 | 89 | 1020.1 |
| 20260902230924 | 69 | 0.0 | 0.0 | 0.00 | 0.88 | 0.06 | 89 | 1020.3 | |
| 20260902230819 | 69 | 91 | 0.0 | 1.0 | 0.00 | 0.88 | 0.06 | 89 | 1020.4 |
| 20260902230731 | 69 | 85 | 2.0 | 3.0 | 0.00 | 0.88 | 0.06 | 89 | 1020.2 |
| 20260902230626 | 69 | 100 | 2.0 | 3.0 | 0.00 | 0.88 | 0.06 | 89 | 1020.3 |
| 20260902230521 | 69 | 112 | 3.0 | 4.0 | 0.00 | 0.88 | 0.06 | 89 | 1020.3 |
| 20260902230457 | 69 | 119 | 2.0 | 3.0 | 0.00 | 0.88 | 0.06 | 89 | 1020.3 |
| 20260902230329 | 69 | 71 | 3.0 | 8.0 | 0.00 | 0.88 | 0.06 | 89 | 1020.2 |
| 20260902230244 | 69 | 106 | 2.0 | 3.0 | 0.00 | 0.88 | 0.06 | 90 | 1020.3 |
| 20260902230119 | 69 | 78 | 1.0 | 3.0 | 0.00 | 0.88 | 0.06 | 90 | 1020.4 |
| 20260902230051 | 69 | 137 | 1.0 | 2.0 | 0.00 | 0.88 | 0.06 | 90 | 1020.4 |
| 20260902225926 | 69 | 153 | 2.0 | 3.0 | 0.00 | 0.88 | 0.06 | 90 | 1020.4 |
| 20260902225841 | 69 | 137 | 1.0 | 4.0 | 0.00 | 0.88 | 0.06 | 90 | 1020.3 |
| 20260902225716 | 69 | 0.0 | 0.0 | 0.00 | 0.88 | 0.06 | 90 | 1020.3 | |
| 20260902225647 | 69 | 139 | 0.0 | 1.0 | 0.00 | 0.88 | 0.06 | 90 | 1020.2 |
| 20260902225522 | 69 | 139 | 2.0 | 3.0 | 0.00 | 0.88 | 0.06 | 89 | 1020.1 |
| 20260902225417 | 69 | 84 | 4.0 | 8.0 | 0.00 | 0.88 | 0.06 | 89 | 1020.3 |
| 20260902225328 | 69 | 152 | 1.0 | 3.0 | 0.00 | 0.88 | 0.06 | 89 | 1020.3 |
| 20260902225306 | 69 | 102 | 3.0 | 4.0 | 0.00 | 0.88 | 0.06 | 89 | 1020.3 |
| 20260902225119 | 69 | 115 | 2.0 | 3.0 | 0.00 | 0.88 | 0.06 | 89 | 1020.6 |
| 20260902225030 | 69 | 81 | 2.0 | 3.0 | 0.00 | 0.88 | 0.06 | 89 | 1020.6 |
| 20260902224946 | 69 | 115 | 1.0 | 1.0 | 0.00 | 0.88 | 0.06 | 89 | 1020.6 |
| 20260902224822 | 69 | 115 | 1.0 | 3.0 | 0.00 | 0.88 | 0.06 | 89 | 1020.6 |
| 20260902224717 | 69 | 97 | 2.0 | 2.0 | 0.00 | 0.88 | 0.06 | 89 | 1020.6 |
| 20260902224628 | 69 | 75 | 0.0 | 1.0 | 0.00 | 0.88 | 0.06 | 89 | 1020.7 |
| 20260902224523 | 69 | 75 | 1.0 | 1.0 | 0.00 | 0.88 | 0.06 | 88 | 1020.7 |
| 20260902224459 | 69 | 75 | 1.0 | 1.0 | 0.00 | 0.88 | 0.06 | 88 | 1020.7 |
| 20260902224330 | 69 | 91 | 2.0 | 3.0 | 0.00 | 0.88 | 0.06 | 88 | 1020.7 |
| 20260902224226 | 70 | 99 | 2.0 | 3.0 | 0.00 | 0.88 | 0.06 | 88 | 1020.7 |
| 20260902224121 | 70 | 99 | 2.0 | 3.0 | 0.00 | 0.88 | 0.06 | 88 | 1020.7 |
| 20260902224016 | 70 | 104 | 2.0 | 4.0 | 0.00 | 0.88 | 0.06 | 88 | 1020.7 |
| 20260902223927 | 70 | 91 | 3.0 | 8.0 | 0.00 | 0.88 | 0.06 | 88 | 1020.7 |
| 20260902223823 | 70 | 82 | 3.0 | 7.0 | 0.00 | 0.88 | 0.06 | 88 | 1020.7 |
| 20260902223718 | 70 | 124 | 1.0 | 2.0 | 0.00 | 0.88 | 0.06 | 87 | 1020.9 |
| 20260902223629 | 70 | 123 | 2.0 | 2.0 | 0.00 | 0.88 | 0.06 | 89 | 1020.9 |
| 20260902223524 | 70 | 92 | 2.0 | 4.0 | 0.00 | 0.88 | 0.06 | 88 | 1021.0 |
| 20260902223419 | 70 | 107 | 1.0 | 2.0 | 0.00 | 0.88 | 0.06 | 88 | 1020.9 |
| 20260902223331 | 70 | 117 | 2.0 | 3.0 | 0.00 | 0.88 | 0.06 | 88 | 1020.9 |
| 20260902223226 | 70 | 100 | 2.0 | 4.0 | 0.00 | 0.88 | 0.06 | 88 | 1020.9 |
| 20260902223120 | 70 | 108 | 1.0 | 1.0 | 0.00 | 0.88 | 0.06 | 88 | 1021.0 |
| 20260902223036 | 70 | 111 | 1.0 | 2.0 | 0.00 | 0.88 | 0.06 | 89 | 1020.9 |
| 20260902222947 | 70 | 112 | 1.0 | 1.0 | 0.00 | 0.88 | 0.06 | 88 | 1020.8 |
| 20260902222842 | 70 | 105 | 2.0 | 4.0 | 0.00 | 0.88 | 0.06 | 88 | 1020.8 |
| 20260902222718 | 70 | 91 | 3.0 | 6.0 | 0.00 | 0.88 | 0.06 | 88 | 1020.8 |
| 20260902222629 | 70 | 92 | 1.0 | 1.0 | 0.00 | 0.88 | 0.06 | 87 | 1020.6 |
| 20260902222525 | 70 | 94 | 1.0 | 2.0 | 0.00 | 0.88 | 0.06 | 87 | 1020.8 |
| 20260902222420 | 70 | 98 | 1.0 | 2.0 | 0.00 | 0.88 | 0.06 | 87 | 1020.8 |
| 20260902222335 | 70 | 87 | 2.0 | 2.0 | 0.00 | 0.88 | 0.06 | 87 | 1020.9 |
| 20260902222227 | 70 | 97 | 2.0 | 4.0 | 0.00 | 0.88 | 0.06 | 87 | 1020.8 |
| 20260902222123 | 70 | 109 | 3.0 | 4.0 | 0.00 | 0.88 | 0.06 | 87 | 1020.9 |
| 20260902222017 | 70 | 100 | 2.0 | 4.0 | 0.00 | 0.88 | 0.06 | 88 | 1021.0 |
| 20260902221929 | 70 | 81 | 3.0 | 6.0 | 0.00 | 0.88 | 0.06 | 88 | 1020.9 |
| 20260902221824 | 70 | 87 | 2.0 | 4.0 | 0.00 | 0.88 | 0.06 | 88 | 1021.0 |
| 20260902221720 | 70 | 100 | 2.0 | 3.0 | 0.00 | 0.88 | 0.06 | 88 | 1021.2 |
| 20260902221616 | 70 | 98 | 1.0 | 1.0 | 0.00 | 0.88 | 0.06 | 88 | 1021.0 |
| 20260902221527 | 70 | 104 | 2.0 | 3.0 | 0.00 | 0.88 | 0.06 | 89 | 1021.1 |
| 20260902221443 | 70 | 95 | 0.0 | 1.0 | 0.00 | 0.88 | 0.06 | 88 | 1021.1 |
| 20260902221317 | 70 | 99 | 1.0 | 2.0 | 0.00 | 0.88 | 0.06 | 88 | 1021.2 |
| 20260902221229 | 70 | 109 | 1.0 | 1.0 | 0.00 | 0.88 | 0.06 | 88 | 1021.1 |
| 20260902221124 | 70 | 103 | 1.0 | 2.0 | 0.00 | 0.88 | 0.06 | 88 | 1021.1 |
| 20260902221019 | 70 | 102 | 1.0 | 4.0 | 0.00 | 0.88 | 0.06 | 89 | 1021.1 |
| 20260902220950 | 70 | 0.0 | 0.0 | 0.00 | 0.88 | 0.06 | 89 | 1021.2 | |
| 20260902220825 | 70 | 81 | 0.0 | 1.0 | 0.00 | 0.88 | 0.06 | 89 | 1021.0 |
| 20260902220721 | 70 | 82 | 0.0 | 1.0 | 0.00 | 0.88 | 0.06 | 89 | 1021.0 |
| 20260902220616 | 70 | 80 | 2.0 | 4.0 | 0.00 | 0.88 | 0.06 | 88 | 1021.0 |
| 20260902220527 | 70 | 81 | 3.0 | 6.0 | 0.00 | 0.88 | 0.06 | 88 | 1020.9 |
| 20260902220422 | 70 | 87 | 2.0 | 4.0 | 0.00 | 0.88 | 0.06 | 89 | 1021.1 |
| 20260902220337 | 70 | 104 | 2.0 | 4.0 | 0.00 | 0.88 | 0.06 | 90 | 1021.0 |
| 20260902220229 | 70 | 79 | 1.0 | 4.0 | 0.00 | 0.88 | 0.06 | 90 | 1021.1 |
| 20260902220124 | 70 | 97 | 1.0 | 1.0 | 0.00 | 0.88 | 0.06 | 90 | 1021.1 |
| 20260902220019 | 70 | 97 | 0.0 | 1.0 | 0.00 | 0.88 | 0.06 | 90 | 1021.1 |
| 20260902215930 | 70 | 0.0 | 0.0 | 0.00 | 0.88 | 0.06 | 90 | 1021.0 | |
| 20260902215825 | 70 | 97 | 1.0 | 2.0 | 0.00 | 0.88 | 0.06 | 89 | 1020.9 |
| 20260902215721 | 70 | 84 | 2.0 | 3.0 | 0.00 | 0.88 | 0.06 | 89 | 1021.2 |
| 20260902215616 | 70 | 97 | 1.0 | 2.0 | 0.00 | 0.88 | 0.06 | 89 | 1021.3 |
| 20260902215528 | 70 | 99 | 1.0 | 2.0 | 0.00 | 0.88 | 0.06 | 90 | 1020.9 |
| 20260902215423 | 70 | 94 | 1.0 | 2.0 | 0.00 | 0.88 | 0.06 | 90 | 1020.9 |
| 20260902215359 | 70 | 91 | 1.0 | 2.0 | 0.00 | 0.88 | 0.06 | 89 | 1021.1 |
| 20260902215230 | 70 | 91 | 0.0 | 1.0 | 0.00 | 0.88 | 0.06 | 89 | 1021.2 |
| 20260902215126 | 70 | 91 | 1.0 | 1.0 | 0.00 | 0.88 | 0.06 | 89 | 1021.2 |
| 20260902215022 | 70 | 90 | 2.0 | 3.0 | 0.00 | 0.88 | 0.06 | 89 | 1021.2 |
| 20260902214917 | 70 | 81 | 0.0 | 1.0 | 0.00 | 0.88 | 0.06 | 89 | 1021.3 |
| 20260902214829 | 70 | 81 | 1.0 | 2.0 | 0.00 | 0.88 | 0.06 | 89 | 1021.3 |
| 20260902214724 | 70 | 83 | 2.0 | 3.0 | 0.00 | 0.88 | 0.06 | 89 | 1021.2 |
| 20260902214619 | 70 | 73 | 1.0 | 3.0 | 0.00 | 0.88 | 0.06 | 89 | 1021.2 |
| 20260902214550 | 70 | 75 | 1.0 | 2.0 | 0.00 | 0.88 | 0.06 | 89 | 1021.2 |
| 20260902214425 | 70 | 96 | 3.0 | 7.0 | 0.00 | 0.88 | 0.06 | 89 | 1021.3 |
| 20260902214320 | 70 | 87 | 1.0 | 4.0 | 0.00 | 0.88 | 0.06 | 89 | 1021.3 |
| 20260902214231 | 70 | 86 | 1.0 | 2.0 | 0.00 | 0.88 | 0.06 | 89 | 1021.4 |
| 20260902214126 | 70 | 98 | 2.0 | 3.0 | 0.00 | 0.88 | 0.06 | 89 | 1021.5 |
| 20260902214020 | 70 | 82 | 2.0 | 2.0 | 0.00 | 0.88 | 0.06 | 89 | 1021.2 |
| 20260902213916 | 70 | 108 | 2.0 | 3.0 | 0.00 | 0.88 | 0.06 | 89 | 1021.5 |
| 20260902213828 | 70 | 126 | 1.0 | 2.0 | 0.00 | 0.88 | 0.06 | 89 | 1021.3 |
| 20260902213723 | 70 | 0.0 | 0.0 | 0.00 | 0.88 | 0.06 | 89 | 1021.4 | |
| 20260902213617 | 70 | 79 | 3.0 | 6.0 | 0.00 | 0.88 | 0.06 | 89 | 1021.3 |
| 20260902213528 | 70 | 94 | 3.0 | 6.0 | 0.00 | 0.88 | 0.06 | 90 | 1021.2 |
| 20260902213423 | 70 | 86 | 0.0 | 1.0 | 0.00 | 0.88 | 0.06 | 90 | 1021.2 |
| 20260902213318 | 70 | 0.0 | 0.0 | 0.00 | 0.88 | 0.06 | 90 | 1021.5 | |
| 20260902213230 | 70 | 89 | 1.0 | 2.0 | 0.00 | 0.88 | 0.06 | 90 | 1021.2 |
| 20260902213125 | 70 | 73 | 0.0 | 1.0 | 0.00 | 0.88 | 0.06 | 90 | 1021.2 |
| 20260902213021 | 70 | 73 | 1.0 | 1.0 | 0.00 | 0.88 | 0.06 | 90 | 1021.4 |
| 20260902212915 | 70 | 73 | 0.0 | 1.0 | 0.00 | 0.88 | 0.06 | 90 | 1021.2 |
| 20260902212827 | 70 | 73 | 0.0 | 1.0 | 0.00 | 0.88 | 0.06 | 90 | 1021.2 |
| 20260902212723 | 70 | 0.0 | 0.0 | 0.00 | 0.88 | 0.06 | 90 | 1021.3 | |
| 20260902212618 | 70 | 74 | 1.0 | 2.0 | 0.00 | 0.88 | 0.06 | 90 | 1021.3 |
| 20260902212530 | 70 | 72 | 2.0 | 4.0 | 0.00 | 0.88 | 0.06 | 90 | 1021.2 |
| 20260902212425 | 70 | 77 | 0.0 | 2.0 | 0.00 | 0.88 | 0.06 | 90 | 1021.0 |
| 20260902212340 | 70 | 74 | 1.0 | 1.0 | 0.00 | 0.88 | 0.06 | 90 | 1021.3 |
| 20260902212215 | 70 | 74 | 0.0 | 1.0 | 0.00 | 0.88 | 0.06 | 90 | 1021.2 |
| 20260902212127 | 70 | 74 | 1.0 | 1.0 | 0.00 | 0.88 | 0.06 | 90 | 1021.2 |
| 20260902212022 | 70 | 74 | 0.0 | 1.0 | 0.00 | 0.88 | 0.06 | 90 | 1021.3 |
| 20260902211917 | 70 | 74 | 1.0 | 2.0 | 0.00 | 0.88 | 0.06 | 90 | 1021.3 |
| 20260902211829 | 70 | 74 | 0.0 | 1.0 | 0.00 | 0.88 | 0.06 | 90 | 1021.4 |
| 20260902211724 | 70 | 74 | 0.0 | 1.0 | 0.00 | 0.88 | 0.06 | 91 | 1021.3 |
| 20260902211620 | 70 | 74 | 0.0 | 1.0 | 0.00 | 0.88 | 0.06 | 90 | 1021.3 |
| 20260902211535 | 70 | 74 | 0.0 | 1.0 | 0.00 | 0.88 | 0.06 | 91 | 1021.2 |
| 20260902211447 | 70 | 74 | 1.0 | 2.0 | 0.00 | 0.88 | 0.06 | 92 | 1021.2 |
| 20260902211323 | 70 | 73 | 0.0 | 2.0 | 0.00 | 0.88 | 0.06 | 92 | 1021.2 |
| 20260902211238 | 70 | 0.0 | 0.0 | 0.00 | 0.88 | 0.06 | 92 | 1021.4 | |
| 20260902211150 | 70 | 72 | 0.0 | 1.0 | 0.00 | 0.88 | 0.06 | 92 | 1021.0 |
| 20260902211025 | 70 | 73 | 0.0 | 1.0 | 0.00 | 0.88 | 0.06 | 91 | 1021.2 |
| 20260902210921 | 70 | 74 | 0.0 | 1.0 | 0.00 | 0.88 | 0.06 | 91 | 1021.1 |
| 20260902210849 | 70 | 0.0 | 0.0 | 0.00 | 0.88 | 0.06 | 91 | 1021.0 | |
| 20260902210644 | 70 | 0.0 | 0.0 | 0.00 | 0.88 | 0.06 | 91 | 1021.0 | |
| 20260902210519 | 70 | 73 | 0.0 | 1.0 | 0.00 | 0.88 | 0.06 | 91 | 1021.0 |
| 20260902210431 | 70 | 74 | 1.0 | 2.0 | 0.00 | 0.88 | 0.06 | 90 | 1021.0 |
| 20260902210327 | 70 | 73 | 1.0 | 1.0 | 0.00 | 0.88 | 0.06 | 90 | 1021.1 |
| 20260902210222 | 70 | 73 | 1.0 | 1.0 | 0.00 | 0.88 | 0.06 | 90 | 1021.1 |
| 20260902210138 | 70 | 74 | 1.0 | 2.0 | 0.00 | 0.88 | 0.06 | 91 | 1021.2 |
| 20260902210049 | 70 | 74 | 1.0 | 2.0 | 0.00 | 0.88 | 0.06 | 91 | 1021.3 |
| 20260902205925 | 70 | 70 | 3.0 | 3.0 | 0.00 | 0.88 | 0.06 | 91 | 1021.2 |
| 20260902205840 | 70 | 76 | 1.0 | 4.0 | 0.00 | 0.88 | 0.06 | 91 | 1021.2 |